M I D A S
Marine Information and Data Acquisition System
Tripno 1913 of the Zeeleeuw from 2010-07-02 05:35:35 to 2010-07-02 16:30:11
Back to CruiseResearch ActivitiesStationsMapUnderway DataData graphs

EquipmentUnitsComment
TimeDGPSUTC
LatitudeDGPSDM.mWGS84
LongitudeDGPSDM.mWGS84
TemperatureSBE03/SBE38deg celciusITS90
ConductivitySBE21S/mITS90
SalinitySBE21 Practical Salinity Units
ChlorophylAChelsea fluorimeterg/lCalibrated in Aceton
Missing or incorrect values are displayed as -999
Sea surface data collected by the RV Zeeleeuw from 2010-07-02 05:37:34 to 2010-07-02 16:40:22
                                                                                    Next 1000 lines
Time Latitude Longitude Temperature Conductivity Salinity ChlorophylA
2010-07-02 05:37:45 51°13.662 2°55.958 22.4944 0.069011 0.347989 -0.965744
2010-07-02 05:37:50 51°13.662 2°55.955 22.5039 0.069011 0.347989 -0.93092
2010-07-02 05:37:54 51°13.663 2°55.953 22.5368 0.068907 0.347454 -0.93092
2010-07-02 05:38:00 51°13.664 2°55.949 22.5211 0.069011 0.347994 -0.93092
2010-07-02 05:38:06 51°13.666 2°55.944 22.5272 0.069011 0.347989 -0.93092
2010-07-02 05:38:11 51°13.667 2°55.94 22.5171 0.069011 0.347994 -0.965744
2010-07-02 05:38:17 51°13.668 2°55.934 22.5257 0.069011 0.347994 -0.965744
2010-07-02 05:38:22 51°13.67 2°55.929 22.5242 0.069011 0.347984 -0.965744
2010-07-02 05:38:29 51°13.672 2°55.921 22.5336 0.069011 0.347994 -0.93092
2010-07-02 05:38:34 51°13.673 2°55.916 22.533 0.069011 0.347989 -0.965744
2010-07-02 05:38:39 51°13.675 2°55.91 22.5375 0.069011 0.347984 -0.93092
2010-07-02 05:38:44 51°13.676 2°55.903 22.5278 0.069011 0.347989 -0.93092
2010-07-02 05:38:49 51°13.677 2°55.897 22.5296 0.069011 0.347989 -0.93092
2010-07-02 05:38:53 51°13.679 2°55.891 22.5265 0.069011 0.347989 -0.965744
2010-07-02 05:38:58 51°13.68 2°55.884 22.5279 0.069011 0.347984 -0.965744
2010-07-02 05:39:03 51°13.681 2°55.877 22.537 0.069011 0.347989 -0.965744
2010-07-02 05:39:09 51°13.683 2°55.868 22.5389 0.069011 0.347984 -0.965744
2010-07-02 05:39:13 51°13.684 2°55.861 22.5401 0.069011 0.347984 -0.93092
2010-07-02 05:39:18 51°13.686 2°55.853 22.5394 0.069011 0.347984 -0.93092
2010-07-02 05:39:23 51°13.687 2°55.845 22.5414 0.069011 0.347984 -0.965744
2010-07-02 05:39:28 51°13.688 2°55.837 22.5403 0.069011 0.347994 -0.965744
2010-07-02 05:39:33 51°13.689 2°55.83 22.5381 0.069011 0.347989 -0.93092
2010-07-02 05:39:39 51°13.691 2°55.82 22.5378 0.069011 0.347994 -0.965744
2010-07-02 05:39:44 51°13.692 2°55.812 22.5362 0.069011 0.347989 -0.965744
2010-07-02 05:39:49 51°13.692 2°55.804 22.5351 0.069011 0.347989 -0.965744
2010-07-02 05:39:54 51°13.693 2°55.795 22.5358 0.069011 0.347984 -0.93092
2010-07-02 05:39:59 51°13.694 2°55.787 22.5349 0.069011 0.347984 -0.965744
2010-07-02 05:40:04 51°13.695 2°55.779 22.534 0.069011 0.347989 -0.965744
2010-07-02 05:40:09 51°13.695 2°55.771 22.5396 0.069011 0.347989 -0.965744
2010-07-02 05:40:14 51°13.696 2°55.763 22.5393 0.069011 0.347984 -0.965744
2010-07-02 05:40:19 51°13.696 2°55.756 22.5393 0.069011 0.347984 -0.965744
2010-07-02 05:40:24 51°13.696 2°55.749 22.5256 0.069011 0.347994 -0.965744
2010-07-02 05:40:29 51°13.696 2°55.744 22.526 0.069011 0.347989 -0.965744
2010-07-02 05:40:34 51°13.696 2°55.739 22.5388 0.069011 0.347989 -0.965744
2010-07-02 05:40:39 51°13.696 2°55.734 22.5385 0.069011 0.347989 -0.965744
2010-07-02 05:40:43 51°13.696 2°55.731 22.5424 0.069011 0.347989 -0.965744
2010-07-02 05:40:48 51°13.696 2°55.728 22.548 0.069011 0.347989 -0.965744
2010-07-02 05:40:53 51°13.696 2°55.727 22.5795 0.069011 0.347984 -0.965744
2010-07-02 05:40:58 51°13.698 2°55.728 22.5728 0.069011 0.347984 -1.000568
2010-07-02 05:41:03 51°13.699 2°55.729 22.5714 0.069011 0.347974 -0.93092
2010-07-02 05:41:07 51°13.7 2°55.73 22.5713 0.069011 0.347969 -0.965744
2010-07-02 05:41:12 51°13.702 2°55.731 22.5764 0.069011 0.347979 -1.000568
2010-07-02 05:41:17 51°13.704 2°55.733 22.581 0.069011 0.347979 -1.000568
2010-07-02 05:41:22 51°13.707 2°55.734 22.588 0.069011 0.347984 -0.93092
2010-07-02 05:41:28 51°13.711 2°55.736 22.5941 0.069011 0.348004 -0.965744
2010-07-02 05:41:33 51°13.714 2°55.737 22.5984 0.069011 0.348019 -0.965744
2010-07-02 05:41:38 51°13.718 2°55.737 22.5992 0.069011 0.348019 -0.965744
2010-07-02 05:41:43 51°13.722 2°55.736 22.5939 0.069011 0.348019 -0.965744
2010-07-02 05:41:48 51°13.727 2°55.735 22.5899 0.069011 0.348019 -0.965744
2010-07-02 05:41:52 51°13.731 2°55.733 22.5904 0.069011 0.348009 -0.965744
2010-07-02 05:41:57 51°13.736 2°55.73 22.5902 0.069011 0.347999 -1.000568
2010-07-02 05:42:02 51°13.741 2°55.726 22.5865 0.069011 0.347989 -0.965744
2010-07-02 05:42:07 51°13.746 2°55.722 22.5848 0.069011 0.347984 -0.965744
2010-07-02 05:42:12 51°13.752 2°55.717 22.5523 0.069011 0.347974 -0.965744
2010-07-02 05:42:16 51°13.756 2°55.713 22.5561 0.069011 0.347974 -0.965744
2010-07-02 05:42:21 51°13.762 2°55.707 22.5405 0.069011 0.347974 -0.965744
2010-07-02 05:42:26 51°13.768 2°55.7 22.5343 0.069011 0.347979 -0.93092
2010-07-02 05:42:31 51°13.774 2°55.694 22.5278 0.069011 0.347979 -0.93092
2010-07-02 05:42:36 51°13.78 2°55.686 22.5315 0.069011 0.347984 -0.965744
2010-07-02 05:42:40 51°13.785 2°55.681 22.5194 0.069011 0.347984 -0.93092
2010-07-02 05:42:45 51°13.792 2°55.673 22.5112 0.069011 0.347984 -0.93092
2010-07-02 05:42:50 51°13.8 2°55.665 22.5037 0.069011 0.347989 -0.965744
2010-07-02 05:42:55 51°13.807 2°55.658 22.4998 0.069011 0.347979 -0.965744
2010-07-02 05:43:00 51°13.814 2°55.65 22.4987 0.069011 0.347974 -0.965744
2010-07-02 05:43:04 51°13.82 2°55.644 22.4935 0.069011 0.347979 -0.965744
2010-07-02 05:43:10 51°13.83 2°55.635 22.4904 0.069011 0.347984 -0.965744
2010-07-02 05:43:15 51°13.838 2°55.627 22.4887 0.069011 0.347984 -0.965744
2010-07-02 05:43:20 51°13.847 2°55.62 22.4874 0.069011 0.347989 -0.93092
2010-07-02 05:43:25 51°13.855 2°55.613 22.4836 0.069011 0.347989 -0.93092
2010-07-02 05:43:30 51°13.864 2°55.606 22.4854 0.069011 0.347994 -0.965744
2010-07-02 05:43:35 51°13.873 2°55.599 22.4868 0.069011 0.347999 -0.965744
2010-07-02 05:43:40 51°13.882 2°55.593 22.4945 0.069011 0.347994 -0.965744
2010-07-02 05:43:44 51°13.889 2°55.587 22.5078 0.069011 0.347994 -0.965744
2010-07-02 05:43:50 51°13.9 2°55.579 22.5135 0.069011 0.347999 -0.93092
2010-07-02 05:43:55 51°13.909 2°55.572 22.5159 0.069011 0.347994 -0.965744
2010-07-02 05:44:00 51°13.918 2°55.565 22.5206 0.069011 0.347989 -0.965744
2010-07-02 05:44:05 51°13.928 2°55.558 22.5278 0.069011 0.347994 -0.965744
2010-07-02 05:44:10 51°13.937 2°55.551 22.5283 0.069011 0.347994 -0.965744
2010-07-02 05:44:15 51°13.947 2°55.544 22.5285 0.069011 0.347994 -0.965744
2010-07-02 05:44:20 51°13.957 2°55.537 22.5284 0.069011 0.347994 -0.93092
2010-07-02 05:44:25 51°13.967 2°55.529 22.5257 0.069011 0.347999 -0.965744
2010-07-02 05:44:30 51°13.977 2°55.522 22.5312 0.069011 0.347999 -0.965744
2010-07-02 05:44:35 51°13.987 2°55.515 22.5364 0.068907 0.347459 -1.000568
2010-07-02 05:44:40 51°13.997 2°55.507 22.5374 0.069011 0.347999 -0.965744
2010-07-02 05:44:44 51°14.005 2°55.501 22.5359 0.069011 0.347999 -0.965744
2010-07-02 05:44:50 51°14.018 2°55.492 22.537 0.069011 0.347999 -0.965744
2010-07-02 05:44:56 51°14.03 2°55.483 22.5417 0.069011 0.347994 -0.965744
2010-07-02 05:45:00 51°14.038 2°55.477 22.5404 0.069011 0.347994 -0.965744
2010-07-02 05:45:04 51°14.046 2°55.47 22.5394 0.069011 0.347994 -0.965744
2010-07-02 05:45:10 51°14.059 2°55.461 22.5423 0.069011 0.347989 -0.965744
2010-07-02 05:45:15 51°14.069 2°55.454 22.5448 0.069011 0.347989 -0.965744
2010-07-02 05:45:20 51°14.079 2°55.446 22.5523 0.069011 0.347989 -0.965744
2010-07-02 05:45:25 51°14.09 2°55.437 22.5498 0.069011 0.347989 -0.93092
2010-07-02 05:45:30 51°14.1 2°55.429 22.5511 0.069011 0.347994 -0.965744
2010-07-02 05:45:36 51°14.113 2°55.419 22.5549 0.069011 0.347994 -0.965744
2010-07-02 05:45:40 51°14.121 2°55.413 22.5563 0.069011 0.347994 -0.93092
2010-07-02 05:45:45 51°14.131 2°55.404 22.5526 0.069011 0.347994 -0.93092
2010-07-02 05:45:50 51°14.142 2°55.396 22.557 0.069011 0.347994 -0.965744
2010-07-02 05:45:55 51°14.152 2°55.387 22.559 0.069011 0.347994 -0.965744
2010-07-02 05:46:00 51°14.163 2°55.378 22.5652 0.069011 0.347989 -0.93092
2010-07-02 05:46:05 51°14.173 2°55.369 22.5712 0.069011 0.347994 -0.965744
2010-07-02 05:46:10 51°14.184 2°55.359 22.5811 0.069011 0.347999 -0.965744
2010-07-02 05:46:16 51°14.196 2°55.346 22.5859 0.069011 0.347999 -0.965744
2010-07-02 05:46:20 51°14.205 2°55.337 22.5859 0.069011 0.347994 -0.965744
2010-07-02 05:46:25 51°14.215 2°55.326 22.5259 0.069011 0.347994 -0.965744
2010-07-02 05:46:30 51°14.226 2°55.314 22.5157 0.069011 0.347999 -0.93092
2010-07-02 05:46:35 51°14.237 2°55.302 22.5092 0.069011 0.347989 -0.965744
2010-07-02 05:46:40 51°14.248 2°55.29 22.4883 0.069011 0.347989 -0.965744
2010-07-02 05:46:45 51°14.26 2°55.278 22.4964 0.069011 0.347989 -0.965744
2010-07-02 05:46:50 51°14.272 2°55.267 22.5186 0.069011 0.347979 -0.965744
2010-07-02 05:46:55 51°14.284 2°55.255 22.4962 0.069011 0.347984 -0.965744
2010-07-02 05:47:00 51°14.297 2°55.243 22.5036 0.069011 0.347979 -0.965744
2010-07-02 05:47:04 51°14.307 2°55.233 22.5049 0.069011 0.347984 -0.965744
2010-07-02 05:47:10 51°14.322 2°55.219 22.5212 0.069011 0.347979 -0.965744
2010-07-02 05:47:15 51°14.334 2°55.207 22.5041 0.069011 0.347979 -0.965744
2010-07-02 05:47:20 51°14.347 2°55.196 22.5309 0.069011 0.347999 -0.965744
2010-07-02 05:47:25 51°14.36 2°55.184 22.4771 0.069011 0.347989 -0.93092
2010-07-02 05:47:30 51°14.373 2°55.172 22.5391 0.069011 0.348004 -0.965744
2010-07-02 05:47:35 51°14.386 2°55.161 22.5201 0.069011 0.347999 -0.93092
2010-07-02 05:47:40 51°14.4 2°55.149 22.5131 0.069011 0.347994 -0.965744
2010-07-02 05:47:45 51°14.413 2°55.137 22.528 0.069011 0.347994 -0.965744
2010-07-02 05:47:50 51°14.426 2°55.126 22.526 0.069011 0.347994 -0.93092
2010-07-02 05:47:56 51°14.441 2°55.112 22.5471 0.069011 0.347984 -0.93092
2010-07-02 05:48:00 51°14.452 2°55.103 22.5443 0.069011 0.347989 -0.965744
2010-07-02 05:48:05 51°14.465 2°55.091 22.5393 0.069011 0.347994 -0.965744
2010-07-02 05:48:10 51°14.478 2°55.079 22.5562 0.069011 0.347989 -0.965744
2010-07-02 05:48:15 51°14.491 2°55.067 22.5532 0.069011 0.347989 -0.965744
2010-07-02 05:48:20 51°14.504 2°55.055 22.5429 0.069011 0.347999 -0.965744
2010-07-02 05:48:25 51°14.518 2°55.042 22.5064 0.069011 0.348004 -0.965744
2010-07-02 05:48:30 51°14.532 2°55.029 22.5378 0.069011 0.347999 -0.965744
2010-07-02 05:48:35 51°14.546 2°55.017 22.5243 0.069011 0.347999 -0.965744
2010-07-02 05:48:40 51°14.56 2°55.005 22.5183 0.069011 0.347994 -0.965744
2010-07-02 05:48:45 51°14.574 2°54.991 22.4989 0.069011 0.347994 -0.965744
2010-07-02 05:48:50 51°14.588 2°54.978 22.5038 0.069011 0.347999 -0.965744
2010-07-02 05:48:55 51°14.602 2°54.965 22.526 0.069011 0.347994 -0.965744
2010-07-02 05:49:00 51°14.617 2°54.952 22.4745 0.069011 0.347994 -0.965744
2010-07-02 05:49:05 51°14.631 2°54.939 22.4732 0.069011 0.347994 -0.965744
2010-07-02 05:49:10 51°14.646 2°54.927 22.5304 0.069011 0.347989 -0.93092
2010-07-02 05:49:15 51°14.661 2°54.914 22.4941 0.069011 0.347989 -0.93092
2010-07-02 05:49:20 51°14.676 2°54.901 22.5486 0.069011 0.347994 -0.965744
2010-07-02 05:49:25 51°14.691 2°54.887 22.5106 0.069011 0.347994 -0.965744
2010-07-02 05:49:30 51°14.706 2°54.873 22.426 0.069011 0.347994 -0.965744
2010-07-02 05:49:35 51°14.721 2°54.858 21.554 0.069011 0.347994 -0.93092
2010-07-02 05:49:40 51°14.737 2°54.843 20.8463 0.069115 0.348328 -0.896096
2010-07-02 05:49:45 51°14.752 2°54.828 20.3279 0.069115 0.348328 -0.896096
2010-07-02 05:49:50 51°14.768 2°54.813 20.17 0.069011 0.347784 -0.547855
2010-07-02 05:49:55 51°14.784 2°54.797 19.969 0.06641 0.334192 1.506764
2010-07-02 05:50:00 51°14.8 2°54.781 19.8517 1.732291 10.665968 1.576412
2010-07-02 05:50:05 51°14.816 2°54.764 19.7296 2.539722 16.285085 1.262995
2010-07-02 05:50:10 51°14.832 2°54.747 19.7007 2.648135 17.166159 1.47194
2010-07-02 05:50:15 51°14.848 2°54.73 19.6405 2.648135 17.166159 1.47194
2010-07-02 05:50:20 51°14.863 2°54.713 19.5953 2.771736 18.247395 2.342541
2010-07-02 05:50:25 51°14.879 2°54.696 19.5038 3.387411 22.963974 2.238069
2010-07-02 05:50:30 51°14.895 2°54.679 19.4898 4.012223 28.025128 2.098773
2010-07-02 05:50:35 51°14.91 2°54.662 19.4878 4.13271 29.163949 2.063949
2010-07-02 05:50:40 51°14.926 2°54.645 19.451 4.190113 29.826501 2.098773
2010-07-02 05:50:45 51°14.943 2°54.629 19.4056 4.190113 29.826501 2.098773
2010-07-02 05:50:50 51°14.958 2°54.612 19.4053 4.201617 30.049034 1.959476
2010-07-02 05:50:56 51°14.977 2°54.591 19.3327 4.200986 30.128674 1.959476
2010-07-02 05:51:00 51°14.989 2°54.577 19.3121 4.202253 30.211403 1.924652
2010-07-02 05:51:05 51°15.005 2°54.559 19.2913 4.204365 30.300848 1.82018
2010-07-02 05:51:10 51°15.02 2°54.541 19.2604 4.201623 30.330225 1.680884
2010-07-02 05:51:15 51°15.036 2°54.524 19.2661 4.201623 30.330225 1.680884
2010-07-02 05:51:20 51°15.051 2°54.506 19.2712 4.198775 30.356313 1.64606
2010-07-02 05:51:25 51°15.067 2°54.488 19.2614 4.198037 30.38518 1.576412
2010-07-02 05:51:30 51°15.083 2°54.471 19.2441 4.196876 30.405574 1.506764
2010-07-02 05:51:35 51°15.099 2°54.453 19.2373 4.193184 30.40811 1.47194
2010-07-02 05:51:40 51°15.114 2°54.435 19.2207 4.194978 30.461268 1.367467
2010-07-02 05:51:45 51°15.129 2°54.417 19.2002 4.194978 30.461268 1.367467
2010-07-02 05:51:50 51°15.144 2°54.398 19.2152 4.190758 30.446182 1.332643
2010-07-02 05:51:56 51°15.163 2°54.376 19.1895 4.193502 30.489605 1.332643
2010-07-02 05:52:00 51°15.175 2°54.361 19.1828 4.190337 30.48153 1.297819
2010-07-02 05:52:05 51°15.19 2°54.342 19.1679 4.189282 30.481771 1.228171
2010-07-02 05:52:10 51°15.205 2°54.324 19.1776 4.188227 30.484086 1.228171
2010-07-02 05:52:15 51°15.22 2°54.305 19.1737 4.188227 30.484086 1.228171
2010-07-02 05:52:20 51°15.236 2°54.287 19.1741 4.189177 30.502161 1.193347
2010-07-02 05:52:25 51°15.251 2°54.268 19.1678 4.186434 30.495443 1.193347
2010-07-02 05:52:30 51°15.267 2°54.25 19.1839 4.188544 30.522971 1.193347
2010-07-02 05:52:35 51°15.282 2°54.232 19.1946 4.188228 30.528192 1.123699
2010-07-02 05:52:40 51°15.297 2°54.214 19.179 4.188755 30.540279 1.088875
2010-07-02 05:52:45 51°15.312 2°54.195 19.185 4.188755 30.540279 1.088875
2010-07-02 05:52:50 51°15.328 2°54.177 19.2015 4.189494 30.552528 1.088875
2010-07-02 05:52:55 51°15.343 2°54.159 19.2055 4.188334 30.553499 1.019227
2010-07-02 05:53:00 51°15.358 2°54.14 19.1967 4.189494 30.562941 0.984403
2010-07-02 05:53:05 51°15.374 2°54.122 19.2051 4.188967 30.5649 0.984403
2010-07-02 05:53:10 51°15.389 2°54.104 19.1994 4.188756 30.562662 0.984403
2010-07-02 05:53:16 51°15.408 2°54.083 19.1924 4.188756 30.562662 0.984403
2010-07-02 05:53:20 51°15.42 2°54.068 19.1937 4.188017 30.554569 0.949579
2010-07-02 05:53:25 51°15.435 2°54.05 19.1919 4.187806 30.553373 0.984403
2010-07-02 05:53:30 51°15.45 2°54.031 19.1938 4.186751 30.541666 0.949579
2010-07-02 05:53:35 51°15.465 2°54.012 19.1929 4.184218 30.515867 0.984403
2010-07-02 05:53:40 51°15.481 2°53.994 19.1988 4.186223 30.533212 0.949579
2010-07-02 05:53:45 51°15.496 2°53.976 19.2078 4.186223 30.533212 0.949579
2010-07-02 05:53:50 51°15.511 2°53.957 19.1967 4.187384 30.541611 0.914755
2010-07-02 05:53:56 51°15.529 2°53.935 19.2091 4.186645 30.538205 0.949579
2010-07-02 05:54:00 51°15.541 2°53.92 19.2056 4.185485 30.531366 0.914755
2010-07-02 05:54:04 51°15.553 2°53.905 19.2078 4.184219 30.520548 0.914755
2010-07-02 05:54:10 51°15.572 2°53.883 19.2086 4.184007 30.518311 0.949579
2010-07-02 05:54:16 51°15.59 2°53.862 19.2171 4.184007 30.518311 0.949579
2010-07-02 05:54:20 51°15.603 2°53.847 19.2099 4.184218 30.519507 1.019227
2010-07-02 05:54:24 51°15.615 2°53.833 19.2182 4.176727 30.457029 1.054051
2010-07-02 05:54:30 51°15.633 2°53.811 19.207 4.174511 30.439533 1.088875
2010-07-02 05:54:35 51°15.648 2°53.792 19.2003 4.175144 30.444162 1.123699
2010-07-02 05:54:40 51°15.663 2°53.773 19.2025 4.175461 30.445179 1.158523
2010-07-02 05:54:45 51°15.678 2°53.754 19.1955 4.175461 30.445179 1.158523
2010-07-02 05:54:50 51°15.693 2°53.736 19.1968 4.172823 30.423217 1.228171
2010-07-02 05:54:56 51°15.711 2°53.713 19.1878 4.171979 30.414283 1.228171
2010-07-02 05:55:00 51°15.723 2°53.698 19.1856 4.141063 30.162648 1.297819
2010-07-02 05:55:04 51°15.735 2°53.683 19.1672 4.180209 30.478071 1.297819
2010-07-02 05:55:10 51°15.752 2°53.66 19.1653 4.179787 30.475678 1.297819
2010-07-02 05:55:16 51°15.77 2°53.638 19.1685 4.179787 30.475678 1.297819
2010-07-02 05:55:20 51°15.782 2°53.623 19.1652 4.182108 30.498707 1.297819
2010-07-02 05:55:24 51°15.794 2°53.608 19.1512 4.181686 30.496314 1.262995
2010-07-02 05:55:30 51°15.812 2°53.585 19.1354 4.180948 30.496024 1.228171
2010-07-02 05:55:36 51°15.83 2°53.562 19.141 4.179998 30.490379 1.228171
2010-07-02 05:55:40 51°15.841 2°53.547 19.1326 4.18042 30.50109 1.123699
2010-07-02 05:55:45 51°15.857 2°53.528 19.1295 4.18042 30.50109 1.123699
2010-07-02 05:55:50 51°15.872 2°53.51 19.1316 4.180526 30.506109 1.088875
2010-07-02 05:55:55 51°15.887 2°53.493 19.1301 4.179576 30.503584 1.088875
2010-07-02 05:56:00 51°15.904 2°53.476 19.1223 4.179154 30.503271 1.054051
2010-07-02 05:56:05 51°15.92 2°53.46 19.1203 4.178943 30.506757 1.019227
2010-07-02 05:56:10 51°15.937 2°53.445 19.1231 4.175989 30.491554 0.984403
2010-07-02 05:56:15 51°15.954 2°53.43 19.1159 4.175989 30.491554 0.984403
2010-07-02 05:56:20 51°15.97 2°53.415 19.1087 4.174301 30.480932 0.949579
2010-07-02 05:56:25 51°15.987 2°53.4 19.1069 4.178205 30.517928 0.949579
2010-07-02 05:56:30 51°16.005 2°53.386 19.1103 4.177572 30.515898 0.949579
2010-07-02 05:56:35 51°16.022 2°53.372 19.1054 4.177466 30.516601 0.984403
2010-07-02 05:56:40 51°16.039 2°53.358 19.0976 4.177467 30.519207 0.914755
2010-07-02 05:56:45 51°16.057 2°53.345 19.0987 4.177467 30.519207 0.914755
2010-07-02 05:56:50 51°16.074 2°53.332 19.102 4.177467 30.521813 0.949579
2010-07-02 05:56:55 51°16.092 2°53.319 19.0969 4.177256 30.523222 0.914755
2010-07-02 05:57:00 51°16.11 2°53.306 19.0931 4.177256 30.526351 0.810283
2010-07-02 05:57:04 51°16.125 2°53.296 19.0913 4.177467 30.530156 0.845107
2010-07-02 05:57:10 51°16.146 2°53.282 19.0758 4.178311 30.539122 0.810283
2010-07-02 05:57:15 51°16.164 2°53.27 19.0833 4.178311 30.539122 0.810283
2010-07-02 05:57:20 51°16.183 2°53.259 19.0712 4.17905 30.548795 0.775459
2010-07-02 05:57:25 51°16.201 2°53.247 19.0628 4.179261 30.553126 0.740634
2010-07-02 05:57:30 51°16.22 2°53.237 19.0638 4.180316 30.563817 0.70581
2010-07-02 05:57:36 51°16.241 2°53.223 19.0669 4.174829 30.519612 0.636162
2010-07-02 05:57:40 51°16.256 2°53.214 19.0402 4.181793 30.578473 0.636162
2010-07-02 05:57:45 51°16.274 2°53.202 19.0442 4.181793 30.578473 0.636162
2010-07-02 05:57:50 51°16.292 2°53.191 19.0409 4.182637 30.590063 0.566514
2010-07-02 05:57:55 51°16.31 2°53.179 19.0334 4.183798 30.602668 0.566514
2010-07-02 05:58:00 51°16.328 2°53.168 19.0389 4.184959 30.6158 0.53169
2010-07-02 05:58:05 51°16.346 2°53.156 19.0251 4.186225 30.631368 0.496866
2010-07-02 05:58:10 51°16.364 2°53.145 19.011 4.187491 30.644845 0.496866
2010-07-02 05:58:15 51°16.382 2°53.133 19.0107 4.187491 30.644845 0.496866
2010-07-02 05:58:20 51°16.4 2°53.121 19.0121 4.188758 30.6599 0.496866
2010-07-02 05:58:25 51°16.418 2°53.109 19.0074 4.190024 30.676009 0.427218
2010-07-02 05:58:30 51°16.436 2°53.097 19.0072 4.190763 30.688343 0.427218
2010-07-02 05:58:35 51°16.454 2°53.086 19.0015 4.191923 30.700975 0.462042
2010-07-02 05:58:40 51°16.473 2°53.074 18.9979 4.192768 30.712603 0.427218
2010-07-02 05:58:45 51°16.491 2°53.062 19.0001 4.192768 30.712603 0.427218
2010-07-02 05:58:50 51°16.509 2°53.051 18.9972 4.193084 30.719398 0.427218
2010-07-02 05:58:56 51°16.53 2°53.036 18.9951 4.193717 30.731413 0.462042
2010-07-02 05:59:00 51°16.545 2°53.027 18.9935 4.193718 30.734573 0.462042
2010-07-02 05:59:05 51°16.563 2°53.015 18.9932 4.192557 30.728772 0.462042
2010-07-02 05:59:10 51°16.581 2°53.003 18.9924 4.191818 30.724841 0.496866
2010-07-02 05:59:15 51°16.598 2°52.991 18.9916 4.191818 30.724841 0.496866
2010-07-02 05:59:20 51°16.617 2°52.98 18.9853 4.191185 30.723352 0.496866
2010-07-02 05:59:25 51°16.635 2°52.969 18.9904 4.190974 30.723206 0.53169
2010-07-02 05:59:30 51°16.654 2°52.959 18.9778 4.190341 30.720137 0.53169
2010-07-02 05:59:35 51°16.672 2°52.948 18.9839 4.19013 30.719991 0.53169
2010-07-02 05:59:40 51°16.691 2°52.939 18.9742 4.189603 30.717258 0.462042
2010-07-02 05:59:45 51°16.709 2°52.929 18.9809 4.189603 30.717258 0.462042
2010-07-02 05:59:50 51°16.728 2°52.92 18.9763 4.18897 30.713134 0.53169
2010-07-02 05:59:56 51°16.751 2°52.908 18.9754 4.188864 30.714378 0.496866
2010-07-02 06:00:00 51°16.766 2°52.901 18.9814 4.188759 30.715095 0.53169
2010-07-02 06:00:05 51°16.784 2°52.891 18.9722 4.188548 30.715477 0.53169
2010-07-02 06:00:10 51°16.803 2°52.882 18.9756 4.18802 30.713796 0.53169
2010-07-02 06:00:15 51°16.822 2°52.873 18.9782 4.18802 30.713796 0.53169
2010-07-02 06:00:20 51°16.84 2°52.864 18.9708 4.187704 30.712787 0.53169
2010-07-02 06:00:25 51°16.859 2°52.855 18.9761 4.187809 30.714704 0.566514
2010-07-02 06:00:30 51°16.878 2°52.846 18.9692 4.186754 30.707654 0.53169
2010-07-02 06:00:35 51°16.896 2°52.837 18.963 4.186543 30.706454 0.566514
2010-07-02 06:00:40 51°16.915 2°52.827 18.9531 4.186332 30.704202 0.601338
2010-07-02 06:00:45 51°16.934 2°52.818 18.9377 4.186332 30.704202 0.601338
2010-07-02 06:00:50 51°16.953 2°52.809 18.9286 4.185382 30.700121 0.566514
2010-07-02 06:00:56 51°16.976 2°52.797 18.9143 4.185171 30.697341 0.566514
2010-07-02 06:01:00 51°16.991 2°52.79 18.8968 4.184749 30.694942 0.566514
2010-07-02 06:01:04 51°17.006 2°52.782 18.887 4.184538 30.694796 0.566514
2010-07-02 06:01:10 51°17.029 2°52.773 18.8799 4.184644 30.69882 0.53169
2010-07-02 06:01:16 51°17.052 2°52.763 18.8555 4.184644 30.69882 0.53169
2010-07-02 06:01:20 51°17.068 2°52.757 18.8342 4.185171 30.706824 0.566514
2010-07-02 06:01:24 51°17.083 2°52.75 18.8303 4.185594 30.713968 0.566514
2010-07-02 06:01:30 51°17.106 2°52.742 18.7905 4.185699 30.726963 0.53169
2010-07-02 06:01:35 51°17.126 2°52.734 18.7599 4.186227 30.739201 0.53169
2010-07-02 06:01:40 51°17.145 2°52.727 18.7309 4.186333 30.751159 0.53169
2010-07-02 06:01:45 51°17.164 2°52.719 18.6923 4.186333 30.751159 0.53169
2010-07-02 06:01:50 51°17.184 2°52.712 18.684 4.186227 30.761397 0.53169
2010-07-02 06:01:56 51°17.207 2°52.703 18.6512 4.18665 30.775969 0.53169
2010-07-02 06:02:00 51°17.222 2°52.698 18.6294 4.186966 30.789687 0.53169
2010-07-02 06:02:05 51°17.241 2°52.69 18.6099 4.187389 30.809585 0.496866
2010-07-02 06:02:10 51°17.261 2°52.683 18.5812 4.187917 30.835156 0.53169
2010-07-02 06:02:15 51°17.28 2°52.676 18.5685 4.187917 30.835156 0.53169
2010-07-02 06:02:20 51°17.299 2°52.668 18.5371 4.188234 30.855838 0.496866
2010-07-02 06:02:25 51°17.319 2°52.663 18.5189 4.188445 30.883674 0.462042
2010-07-02 06:02:30 51°17.338 2°52.657 18.5153 4.188235 30.902214 0.462042
2010-07-02 06:02:35 51°17.358 2°52.654 18.4885 4.188024 30.928268 0.427218
2010-07-02 06:02:40 51°17.378 2°52.649 18.4599 4.187497 30.941586 0.462042
2010-07-02 06:02:45 51°17.397 2°52.647 18.4383 4.187497 30.941586 0.462042
2010-07-02 06:02:50 51°17.417 2°52.643 18.4398 4.187286 30.960748 0.496866
2010-07-02 06:02:56 51°17.441 2°52.642 18.4021 4.186759 30.977328 0.427218
2010-07-02 06:03:00 51°17.457 2°52.64 18.3837 4.185599 30.983866 0.427218
2010-07-02 06:03:05 51°17.477 2°52.64 18.3712 4.185071 30.998871 0.392394
2010-07-02 06:03:10 51°17.497 2°52.639 18.3478 4.184544 31.009588 0.427218
2010-07-02 06:03:16 51°17.52 2°52.64 18.3232 4.184544 31.009588 0.427218
2010-07-02 06:03:20 51°17.536 2°52.64 18.3064 4.183806 31.025582 0.392394
2010-07-02 06:03:24 51°17.552 2°52.64 18.2888 4.182751 31.030883 0.427218
2010-07-02 06:03:30 51°17.576 2°52.641 18.2698 4.18254 31.041558 0.427218
2010-07-02 06:03:36 51°17.6 2°52.642 18.2547 4.181696 31.054028 0.392394
2010-07-02 06:03:40 51°17.616 2°52.643 18.2263 4.180325 31.063769 0.392394
2010-07-02 06:03:45 51°17.636 2°52.644 18.217 4.180325 31.063769 0.392394
2010-07-02 06:03:50 51°17.656 2°52.644 18.2024 4.17927 31.070732 0.392394
2010-07-02 06:03:56 51°17.679 2°52.645 18.1904 4.178426 31.082709 0.392394
2010-07-02 06:04:00 51°17.695 2°52.646 18.1659 4.177372 31.094581 0.392394
2010-07-02 06:04:05 51°17.715 2°52.647 18.1642 4.176106 31.098194 0.392394
2010-07-02 06:04:10 51°17.735 2°52.647 18.146 4.175578 31.108494 0.35757
2010-07-02 06:04:16 51°17.759 2°52.648 18.1158 4.175578 31.108494 0.35757
2010-07-02 06:04:20 51°17.775 2°52.649 18.11 4.173152 31.109003 0.392394
2010-07-02 06:04:24 51°17.791 2°52.649 18.0983 4.172413 31.118658 0.35757
2010-07-02 06:04:30 51°17.815 2°52.65 18.0967 4.170514 31.118664 0.35757
2010-07-02 06:04:35 51°17.835 2°52.65 18.0807 4.169143 31.11761 0.35757
2010-07-02 06:04:40 51°17.855 2°52.65 18.0824 4.167877 31.12071 0.392394
2010-07-02 06:04:45 51°17.874 2°52.651 18.0819 4.167877 31.12071 0.392394
2010-07-02 06:04:50 51°17.894 2°52.651 18.0631 4.166717 31.128516 0.392394
2010-07-02 06:04:55 51°17.914 2°52.652 18.0296 4.165345 31.131294 0.392394
2010-07-02 06:05:00 51°17.934 2°52.652 18.0186 4.163552 31.132198 0.392394
2010-07-02 06:05:05 51°17.954 2°52.652 18.0125 4.162497 31.133246 0.392394
2010-07-02 06:05:10 51°17.974 2°52.653 18.0118 4.160387 31.128229 0.392394
2010-07-02 06:05:16 51°17.998 2°52.653 17.9817 4.160387 31.128229 0.392394
2010-07-02 06:05:20 51°18.013 2°52.653 17.9769 4.159121 31.124232 0.392394
2010-07-02 06:05:25 51°18.033 2°52.653 17.9759 4.158066 31.119806 0.392394
2010-07-02 06:05:30 51°18.053 2°52.653 17.9622 4.157433 31.121092 0.392394
2010-07-02 06:05:35 51°18.073 2°52.653 17.9615 4.15585 31.123765 0.462042
2010-07-02 06:05:40 51°18.093 2°52.654 17.9425 4.153635 31.1217 0.427218
2010-07-02 06:05:45 51°18.113 2°52.655 17.9337 4.153635 31.1217 0.427218
2010-07-02 06:05:50 51°18.133 2°52.655 17.9253 4.152896 31.123755 0.462042
2010-07-02 06:05:55 51°18.153 2°52.659 17.9341 4.151419 31.121831 0.462042
2010-07-02 06:06:00 51°18.173 2°52.66 17.9327 4.149731 31.120888 0.462042
2010-07-02 06:06:04 51°18.189 2°52.665 17.9081 4.148465 31.117985 0.496866
2010-07-02 06:06:10 51°18.212 2°52.668 17.9129 4.146988 31.115512 0.496866
2010-07-02 06:06:15 51°18.232 2°52.674 17.8858 4.146988 31.115512 0.496866
2010-07-02 06:06:20 51°18.252 2°52.678 17.8845 4.145722 31.113157 0.462042
2010-07-02 06:06:25 51°18.271 2°52.684 17.8696 4.144351 31.109918 0.496866
2010-07-02 06:06:30 51°18.291 2°52.688 17.8862 4.143823 31.110448 0.496866
2010-07-02 06:06:35 51°18.31 2°52.695 17.8598 4.142557 31.105344 0.496866
2010-07-02 06:06:40 51°18.33 2°52.7 17.8615 4.141713 31.103772 0.53169
2010-07-02 06:06:45 51°18.35 2°52.706 17.86 4.141713 31.103772 0.53169
2010-07-02 06:06:50 51°18.369 2°52.712 17.8528 4.140553 31.101749 0.53169
2010-07-02 06:06:55 51°18.389 2°52.717 17.8442 4.139814 31.098862 0.566514
2010-07-02 06:07:00 51°18.409 2°52.723 17.8399 4.138337 31.098036 0.601338
2010-07-02 06:07:05 51°18.428 2°52.729 17.8314 4.136966 31.095894 0.566514
2010-07-02 06:07:10 51°18.448 2°52.735 17.8356 4.136122 31.094873 0.53169
2010-07-02 06:07:15 51°18.468 2°52.741 17.838 4.136122 31.094873 0.53169
2010-07-02 06:07:20 51°18.487 2°52.746 17.831 4.135172 31.093517 0.53169
2010-07-02 06:07:25 51°18.507 2°52.752 17.8316 4.133906 31.089506 0.566514
2010-07-02 06:07:30 51°18.527 2°52.758 17.8325 4.133484 31.08872 0.566514
2010-07-02 06:07:35 51°18.546 2°52.764 17.8234 4.132324 31.084492 0.566514
2010-07-02 06:07:40 51°18.566 2°52.769 17.8129 4.13148 31.082918 0.566514
2010-07-02 06:07:45 51°18.586 2°52.775 17.8103 4.13148 31.082918 0.566514
2010-07-02 06:07:50 51°18.605 2°52.78 17.8156 4.130636 31.080794 0.53169
2010-07-02 06:07:56 51°18.629 2°52.786 17.8125 4.130425 31.081778 0.53169
2010-07-02 06:08:00 51°18.645 2°52.79 17.8119 4.129581 31.078551 0.601338
2010-07-02 06:08:04 51°18.66 2°52.794 17.8149 4.128842 31.075108 0.566514
2010-07-02 06:08:10 51°18.684 2°52.801 17.8099 4.128631 31.073888 0.566514
2010-07-02 06:08:16 51°18.708 2°52.807 17.8094 4.128631 31.073888 0.566514
2010-07-02 06:08:20 51°18.724 2°52.811 17.8034 4.12821 31.075304 0.566514
2010-07-02 06:08:24 51°18.74 2°52.816 17.8085 4.127682 31.07308 0.601338
2010-07-02 06:08:30 51°18.763 2°52.822 17.8114 4.127155 31.071958 0.566514
2010-07-02 06:08:35 51°18.783 2°52.828 17.8018 4.126944 31.07184 0.601338
2010-07-02 06:08:40 51°18.803 2°52.833 17.8087 4.126943 31.070738 0.566514
2010-07-02 06:08:45 51°18.822 2°52.838 17.8101 4.126943 31.070738 0.566514
2010-07-02 06:08:50 51°18.842 2°52.843 17.8128 4.126943 31.070738 0.601338
2010-07-02 06:08:55 51°18.862 2°52.848 17.807 4.125994 31.06497 0.601338
2010-07-02 06:09:00 51°18.882 2°52.853 17.8146 4.125783 31.068159 0.601338
2010-07-02 06:09:05 51°18.901 2°52.858 17.8113 4.125361 31.064064 0.601338
2010-07-02 06:09:10 51°18.921 2°52.863 17.8209 4.12515 31.062843 0.636162
2010-07-02 06:09:15 51°18.941 2°52.869 17.8245 4.12515 31.062843 0.636162
2010-07-02 06:09:20 51°18.961 2°52.873 17.8301 4.124939 31.062725 0.636162
2010-07-02 06:09:24 51°18.976 2°52.878 17.8292 4.124411 31.058295 0.601338
2010-07-02 06:09:30 51°19 2°52.884 17.8339 4.124517 31.059732 0.636162
2010-07-02 06:09:35 51°19.02 2°52.889 17.8373 4.124728 31.059851 0.601338
2010-07-02 06:09:40 51°19.039 2°52.894 17.8389 4.124939 31.060521 0.601338
2010-07-02 06:09:45 51°19.059 2°52.899 17.8452 4.124939 31.060521 0.601338
2010-07-02 06:09:50 51°19.079 2°52.905 17.843 4.124939 31.058868 0.636162
2010-07-02 06:09:56 51°19.102 2°52.911 17.8521 4.125994 31.063868 0.601338
2010-07-02 06:10:00 51°19.118 2°52.915 17.8502 4.125361 31.056902 0.601338
2010-07-02 06:10:05 51°19.137 2°52.92 17.8592 4.125361 31.054148 0.636162
2010-07-02 06:10:10 51°19.157 2°52.925 17.8589 4.126416 31.06025 0.601338
2010-07-02 06:10:16 51°19.181 2°52.931 17.8653 4.126416 31.06025 0.601338
2010-07-02 06:10:20 51°19.196 2°52.935 17.8669 4.126416 31.058597 0.601338
2010-07-02 06:10:24 51°19.212 2°52.939 17.8734 4.126838 31.059386 0.601338
2010-07-02 06:10:30 51°19.236 2°52.945 17.8754 4.127154 31.059289 0.601338
2010-07-02 06:10:36 51°19.259 2°52.951 17.8801 4.12726 31.057421 0.566514
2010-07-02 06:10:40 51°19.275 2°52.955 17.8842 4.127682 31.05821 0.566514
2010-07-02 06:10:45 51°19.294 2°52.96 17.8915 4.127682 31.05821 0.566514
2010-07-02 06:10:50 51°19.314 2°52.965 17.898 4.127787 31.056343 0.566514
2010-07-02 06:10:56 51°19.338 2°52.97 17.9031 4.128315 31.058017 0.566514
2010-07-02 06:11:00 51°19.353 2°52.974 17.9104 4.128631 31.05792 0.566514
2010-07-02 06:11:05 51°19.373 2°52.979 17.9113 4.128526 31.053734 0.601338
2010-07-02 06:11:10 51°19.393 2°52.984 17.9145 4.129053 31.053758 0.53169
2010-07-02 06:11:15 51°19.412 2°52.989 17.9149 4.129053 31.053758 0.53169
2010-07-02 06:11:20 51°19.432 2°52.994 17.9189 4.129264 31.052777 0.53169
2010-07-02 06:11:24 51°19.448 2°52.997 17.9185 4.129369 31.048163 0.53169
2010-07-02 06:11:30 51°19.471 2°53.003 17.9185 4.130002 31.049072 0.462042
2010-07-02 06:11:36 51°19.495 2°53.009 17.9207 4.130424 31.048762 0.53169
2010-07-02 06:11:40 51°19.51 2°53.013 17.9224 4.130952 31.048238 0.496866
2010-07-02 06:11:45 51°19.53 2°53.018 17.9253 4.130952 31.048238 0.496866
2010-07-02 06:11:50 51°19.55 2°53.022 17.925 4.131479 31.049912 0.496866
2010-07-02 06:11:55 51°19.569 2°53.027 17.9273 4.131479 31.046066 0.496866
2010-07-02 06:12:00 51°19.589 2°53.032 17.9323 4.131479 31.044967 0.496866
2010-07-02 06:12:05 51°19.609 2°53.037 17.9294 4.132112 31.046976 0.496866
2010-07-02 06:12:10 51°19.628 2°53.042 17.9325 4.132218 31.04786 0.462042
2010-07-02 06:12:15 51°19.648 2°53.047 17.9316 4.132218 31.04786 0.462042
2010-07-02 06:12:20 51°19.668 2°53.051 17.9368 4.131796 31.042676 0.496866
2010-07-02 06:12:25 51°19.687 2°53.056 17.9392 4.132323 31.045448 0.462042
2010-07-02 06:12:30 51°19.707 2°53.06 17.9424 4.132534 31.04502 0.496866
2010-07-02 06:12:35 51°19.727 2°53.066 17.9479 4.132429 31.043587 0.462042
2010-07-02 06:12:40 51°19.746 2°53.07 17.9559 4.132323 31.041056 0.496866
2010-07-02 06:12:45 51°19.766 2°53.076 17.9586 4.132323 31.041056 0.496866
2010-07-02 06:12:50 51°19.785 2°53.08 17.9693 4.132218 31.037977 0.496866
2010-07-02 06:12:55 51°19.805 2°53.085 17.9718 4.132218 31.038525 0.496866
2010-07-02 06:13:00 51°19.825 2°53.091 17.9769 4.13264 31.039316 0.496866
2010-07-02 06:13:05 51°19.844 2°53.096 17.9832 4.132956 31.039222 0.496866
2010-07-02 06:13:10 51°19.864 2°53.101 17.9979 4.130529 31.017256 0.496866
2010-07-02 06:13:15 51°19.884 2°53.106 18.0057 4.130529 31.017256 0.496866
2010-07-02 06:13:20 51°19.903 2°53.111 18.015 4.132851 31.032304 0.53169
2010-07-02 06:13:25 51°19.923 2°53.116 18.0322 4.133695 31.034982 0.496866
2010-07-02 06:13:30 51°19.942 2°53.121 18.0487 4.134327 31.035346 0.53169
2010-07-02 06:13:35 51°19.962 2°53.127 18.0703 4.134644 31.033608 0.53169
2010-07-02 06:13:40 51°19.982 2°53.131 18.0869 4.134538 31.027792 0.496866
2010-07-02 06:13:45 51°20.001 2°53.136 18.1076 4.134538 31.027792 0.496866
2010-07-02 06:13:50 51°20.021 2°53.141 18.1299 4.13591 31.034336 0.496866
2010-07-02 06:13:55 51°20.04 2°53.146 18.1504 4.136648 31.033939 0.496866
2010-07-02 06:14:00 51°20.06 2°53.15 18.1627 4.137387 31.030804 0.496866
2010-07-02 06:14:05 51°20.079 2°53.156 18.1768 4.13802 31.026789 0.53169
2010-07-02 06:14:10 51°20.099 2°53.161 18.1953 4.139602 31.028526 0.496866
2010-07-02 06:14:15 51°20.119 2°53.166 18.2213 4.139602 31.028526 0.496866
2010-07-02 06:14:20 51°20.138 2°53.17 18.2319 4.139602 31.013759 0.462042
2010-07-02 06:14:25 51°20.158 2°53.174 18.2442 4.14129 31.010373 0.496866
2010-07-02 06:14:30 51°20.177 2°53.179 18.2537 4.142661 31.008173 0.53169
2010-07-02 06:14:35 51°20.197 2°53.183 18.2709 4.144138 31.001402 0.496866
2010-07-02 06:14:40 51°20.216 2°53.188 18.2798 4.145087 30.994058 0.53169
2010-07-02 06:14:45 51°20.236 2°53.193 18.2875 4.145087 30.994058 0.53169
2010-07-02 06:14:50 51°20.256 2°53.198 18.2904 4.146248 30.98957 0.53169
2010-07-02 06:14:56 51°20.279 2°53.203 18.2958 4.147303 30.983121 0.566514
2010-07-02 06:15:00 51°20.295 2°53.207 18.2983 4.147935 30.976428 0.53169
2010-07-02 06:15:05 51°20.314 2°53.212 18.3052 4.149518 30.974929 0.566514
2010-07-02 06:15:10 51°20.334 2°53.216 18.3083 4.150256 30.965867 0.566514
2010-07-02 06:15:16 51°20.358 2°53.222 18.3157 4.150256 30.965867 0.566514
2010-07-02 06:15:20 51°20.374 2°53.226 18.3215 4.150572 30.957646 0.601338
2010-07-02 06:15:24 51°20.389 2°53.23 18.3255 4.150994 30.95085 0.670986
2010-07-02 06:15:30 51°20.413 2°53.235 18.3284 4.149834 30.935781 0.636162
2010-07-02 06:15:35 51°20.433 2°53.241 18.3306 4.151205 30.939597 0.670986
2010-07-02 06:15:40 51°20.453 2°53.246 18.331 4.151627 30.937146 0.670986
2010-07-02 06:15:45 51°20.473 2°53.251 18.3309 4.151627 30.937146 0.670986
2010-07-02 06:15:50 51°20.493 2°53.256 18.3317 4.152049 30.935238 0.636162
2010-07-02 06:15:55 51°20.512 2°53.261 18.3328 4.151732 30.928278 0.636162
2010-07-02 06:16:00 51°20.532 2°53.266 18.3321 4.148883 30.898667 0.670986
2010-07-02 06:16:05 51°20.552 2°53.271 18.3275 4.147934 30.886999 0.670986
2010-07-02 06:16:10 51°20.572 2°53.275 18.3156 4.152576 30.920682 0.636162
2010-07-02 06:16:16 51°20.595 2°53.281 18.2846 4.152576 30.920682 0.636162
2010-07-02 06:16:20 51°20.611 2°53.285 18.2624 4.152365 30.917307 0.670986
2010-07-02 06:16:24 51°20.627 2°53.288 18.2243 4.152365 30.915145 0.601338
2010-07-02 06:16:30 51°20.65 2°53.294 18.1984 4.152576 30.916356 0.601338
2010-07-02 06:16:36 51°20.674 2°53.299 18.1656 4.150571 30.895932 0.636162
2010-07-02 06:16:40 51°20.69 2°53.303 18.1415 4.152049 30.910355 0.601338
2010-07-02 06:16:45 51°20.709 2°53.307 18.1313 4.152049 30.910355 0.601338
2010-07-02 06:16:50 51°20.729 2°53.312 18.1097 4.150466 30.897757 0.566514
2010-07-02 06:16:56 51°20.753 2°53.317 18.082 4.148989 30.895219 0.53169
2010-07-02 06:17:00 51°20.769 2°53.321 18.073 4.146984 30.895868 0.566514
2010-07-02 06:17:05 51°20.789 2°53.326 18.068 4.144664 30.897137 0.496866
2010-07-02 06:17:10 51°20.808 2°53.33 18.0542 4.141815 30.892941 0.496866
2010-07-02 06:17:16 51°20.832 2°53.336 18.0386 4.141815 30.892941 0.496866
2010-07-02 06:17:20 51°20.848 2°53.34 18.0296 4.138334 30.888895 0.53169
2010-07-02 06:17:25 51°20.868 2°53.345 18.0306 4.137279 30.896922 0.53169
2010-07-02 06:17:30 51°20.888 2°53.349 18.0208 4.135486 30.901521 0.496866
2010-07-02 06:17:36 51°20.912 2°53.355 18.0157 4.132215 30.892187 0.53169
2010-07-02 06:17:40 51°20.928 2°53.358 18.0094 4.129683 30.886288 0.53169
2010-07-02 06:17:45 51°20.947 2°53.363 18.0019 4.129683 30.886288 0.53169
2010-07-02 06:17:50 51°20.967 2°53.367 17.9788 4.126729 30.874149 0.462042
2010-07-02 06:17:55 51°20.987 2°53.371 17.9678 4.125358 30.871403 0.462042
2010-07-02 06:18:00 51°21.007 2°53.376 17.9571 4.123881 30.870495 0.462042
2010-07-02 06:18:05 51°21.026 2°53.38 17.9372 4.122509 30.869924 0.427218
2010-07-02 06:18:10 51°21.046 2°53.385 17.9141 4.121032 30.862488 0.427218
2010-07-02 06:18:15 51°21.066 2°53.39 17.9129 4.121032 30.862488 0.427218
2010-07-02 06:18:20 51°21.086 2°53.394 17.8965 4.119766 30.859533 0.462042
2010-07-02 06:18:25 51°21.105 2°53.399 17.8972 4.119344 30.863628 0.427218
2010-07-02 06:18:30 51°21.125 2°53.404 17.8802 4.117867 30.859998 0.427218
2010-07-02 06:18:35 51°21.145 2°53.409 17.8806 4.115757 30.854345 0.427218
2010-07-02 06:18:40 51°21.165 2°53.414 17.8754 4.116707 30.873181 0.462042
2010-07-02 06:18:45 51°21.185 2°53.418 17.8679 4.116707 30.873181 0.462042
2010-07-02 06:18:50 51°21.205 2°53.423 17.8682 4.113437 30.862187 0.462042
2010-07-02 06:18:55 51°21.224 2°53.428 17.8658 4.112487 30.864607 0.462042
2010-07-02 06:19:00 51°21.244 2°53.433 17.8504 4.111221 30.86438 0.427218
2010-07-02 06:19:05 51°21.264 2°53.437 17.8397 4.109744 30.861297 0.427218
2010-07-02 06:19:10 51°21.284 2°53.443 17.8344 4.108373 30.859095 0.462042
2010-07-02 06:19:15 51°21.304 2°53.447 17.8297 4.108373 30.859095 0.462042
2010-07-02 06:19:20 51°21.323 2°53.452 17.8281 4.107423 30.856605 0.427218
2010-07-02 06:19:25 51°21.343 2°53.457 17.8159 4.106791 30.857312 0.392394
2010-07-02 06:19:30 51°21.363 2°53.462 17.8073 4.106685 30.860252 0.35757
2010-07-02 06:19:35 51°21.383 2°53.467 17.8071 4.105419 30.854564 0.427218
2010-07-02 06:19:40 51°21.402 2°53.472 17.8039 4.105525 30.863647 0.392394
2010-07-02 06:19:45 51°21.422 2°53.476 17.8014 4.105525 30.863647 0.392394
2010-07-02 06:19:50 51°21.442 2°53.481 17.795 4.104575 30.861157 0.392394
2010-07-02 06:19:56 51°21.466 2°53.487 17.783 4.104153 30.863088 0.392394
2010-07-02 06:20:00 51°21.481 2°53.491 17.7763 4.104892 30.874752 0.392394
2010-07-02 06:20:05 51°21.501 2°53.496 17.773 4.103626 30.871798 0.35757
2010-07-02 06:20:10 51°21.521 2°53.501 17.7714 4.102993 30.871416 0.392394
2010-07-02 06:20:15 51°21.54 2°53.506 17.7657 4.102993 30.871416 0.392394
2010-07-02 06:20:20 51°21.56 2°53.511 17.7688 4.102888 30.874912 0.392394
2010-07-02 06:20:25 51°21.58 2°53.516 17.7644 4.102571 30.878282 0.35757
2010-07-02 06:20:30 51°21.6 2°53.521 17.766 4.102044 30.877143 0.35757
2010-07-02 06:20:35 51°21.619 2°53.526 17.7632 4.102149 30.883509 0.392394
2010-07-02 06:20:40 51°21.639 2°53.531 17.7659 4.10236 30.891311 0.322746
2010-07-02 06:20:45 51°21.659 2°53.535 17.7687 4.10236 30.891311 0.322746
2010-07-02 06:20:50 51°21.679 2°53.54 17.7755 4.102572 30.898568 0.322746
2010-07-02 06:20:56 51°21.702 2°53.546 17.7774 4.102572 30.90186 0.35757
2010-07-02 06:21:00 51°21.718 2°53.55 17.7851 4.102466 30.904267 0.35757
2010-07-02 06:21:05 51°21.738 2°53.555 17.7907 4.102888 30.910007 0.35757
2010-07-02 06:21:10 51°21.758 2°53.56 17.7965 4.102677 30.909882 0.322746
2010-07-02 06:21:16 51°21.781 2°53.566 17.7949 4.102677 30.909882 0.322746
2010-07-02 06:21:20 51°21.797 2°53.57 17.8 4.100462 30.892921 0.392394
2010-07-02 06:21:24 51°21.813 2°53.574 17.7994 4.102361 30.906675 0.322746
2010-07-02 06:21:30 51°21.837 2°53.58 17.8026 4.102572 30.907349 0.322746
2010-07-02 06:21:36 51°21.86 2°53.587 17.8043 4.102783 30.906925 0.322746
2010-07-02 06:21:40 51°21.876 2°53.591 17.8062 4.102677 30.903295 0.392394
2010-07-02 06:21:45 51°21.896 2°53.596 17.8149 4.102677 30.903295 0.392394
2010-07-02 06:21:50 51°21.916 2°53.601 17.8177 4.102888 30.900128 0.35757
2010-07-02 06:21:56 51°21.939 2°53.607 17.8133 4.103205 30.898945 0.35757
2010-07-02 06:22:00 51°21.955 2°53.611 17.8166 4.102993 30.893334 0.35757
2010-07-02 06:22:05 51°21.975 2°53.616 17.818 4.102888 30.892448 0.35757
2010-07-02 06:22:10 51°21.995 2°53.621 17.8187 4.103521 30.895568 0.392394
2010-07-02 06:22:16 51°22.019 2°53.627 17.8246 4.103521 30.895568 0.392394
2010-07-02 06:22:20 51°22.035 2°53.631 17.8258 4.103626 30.893712 0.392394
2010-07-02 06:22:24 51°22.05 2°53.635 17.8287 4.103732 30.892405 0.392394
2010-07-02 06:22:30 51°22.074 2°53.641 17.8284 4.103626 30.888779 0.35757
2010-07-02 06:22:35 51°22.094 2°53.645 17.829 4.104048 30.890127 0.35757
2010-07-02 06:22:40 51°22.114 2°53.651 17.8311 4.103732 30.886376 0.392394
2010-07-02 06:22:45 51°22.134 2°53.655 17.8333 4.103732 30.886376 0.392394
2010-07-02 06:22:50 51°22.153 2°53.66 17.8327 4.10236 30.872677 0.392394
2010-07-02 06:22:55 51°22.173 2°53.665 17.8339 4.101833 30.867704 0.392394
2010-07-02 06:23:00 51°22.193 2°53.67 17.8319 4.104259 30.88587 0.392394
2010-07-02 06:23:05 51°22.213 2°53.675 17.8298 4.103732 30.878158 0.35757
2010-07-02 06:23:10 51°22.232 2°53.68 17.8339 4.104365 30.882373 0.35757
2010-07-02 06:23:15 51°22.252 2°53.685 17.8312 4.104365 30.882373 0.35757
2010-07-02 06:23:20 51°22.272 2°53.689 17.8282 4.104365 30.882373 0.35757
2010-07-02 06:23:25 51°22.292 2°53.694 17.8275 4.104259 30.879297 0.392394
2010-07-02 06:23:30 51°22.312 2°53.698 17.8264 4.103204 30.868259 0.392394
2010-07-02 06:23:35 51°22.332 2°53.702 17.8278 4.10331 30.870239 0.427218
2010-07-02 06:23:40 51°22.352 2°53.707 17.8254 4.104048 30.87698 0.392394
2010-07-02 06:23:45 51°22.371 2°53.712 17.8173 4.104048 30.87698 0.392394
2010-07-02 06:23:50 51°22.391 2°53.717 17.8125 4.104365 30.879087 0.392394
2010-07-02 06:23:56 51°22.415 2°53.722 17.8106 4.103943 30.875 0.427218
2010-07-02 06:24:00 51°22.431 2°53.726 17.8073 4.103521 30.872008 0.427218
2010-07-02 06:24:05 51°22.451 2°53.73 17.8056 4.104154 30.87896 0.427218
2010-07-02 06:24:10 51°22.471 2°53.736 17.7961 4.101305 30.855616 0.427218
2010-07-02 06:24:16 51°22.495 2°53.741 17.7948 4.101305 30.855616 0.427218
2010-07-02 06:24:20 51°22.511 2°53.745 17.7927 4.103099 30.870659 0.392394
2010-07-02 06:24:24 51°22.527 2°53.749 17.7946 4.102993 30.873059 0.462042
2010-07-02 06:24:30 51°22.551 2°53.755 17.7851 4.102782 30.874027 0.427218
2010-07-02 06:24:36 51°22.575 2°53.761 17.784 4.102571 30.8739 0.427218
2010-07-02 06:24:40 51°22.591 2°53.765 17.7821 4.10236 30.876512 0.462042
2010-07-02 06:24:45 51°22.611 2°53.77 17.7736 4.10236 30.876512 0.462042
2010-07-02 06:24:50 51°22.631 2°53.774 17.7711 4.102677 30.880811 0.462042
2010-07-02 06:24:55 51°22.651 2°53.78 17.7688 4.101833 30.87866 0.427218
2010-07-02 06:25:00 51°22.671 2°53.784 17.7685 4.101622 30.87963 0.427218
2010-07-02 06:25:05 51°22.691 2°53.79 17.7689 4.101833 30.884141 0.427218
2010-07-02 06:25:10 51°22.711 2°53.795 17.7675 4.101622 30.884015 0.462042
2010-07-02 06:25:16 51°22.735 2°53.801 17.7601 4.101622 30.884015 0.462042
2010-07-02 06:25:20 51°22.751 2°53.805 17.7571 4.101516 30.885871 0.462042
2010-07-02 06:25:24 51°22.767 2°53.81 17.7529 4.100461 30.879756 0.427218
2010-07-02 06:25:30 51°22.791 2°53.815 17.7555 4.101622 30.891692 0.392394
2010-07-02 06:25:35 51°22.812 2°53.821 17.7561 4.100462 30.887434 0.392394
2010-07-02 06:25:40 51°22.832 2°53.826 17.7576 4.100673 30.890303 0.462042
2010-07-02 06:25:45 51°22.852 2°53.832 17.7552 4.100673 30.890303 0.462042
2010-07-02 06:25:50 51°22.872 2°53.837 17.7582 4.1012 30.898026 0.392394
2010-07-02 06:25:55 51°22.892 2°53.842 17.7592 4.100884 30.895367 0.35757
2010-07-02 06:26:00 51°22.912 2°53.848 17.761 4.100251 30.893344 0.427218
2010-07-02 06:26:05 51°22.932 2°53.854 17.7596 4.101306 30.904951 0.392394
2010-07-02 06:26:10 51°22.953 2°53.859 17.7619 4.099407 30.891194 0.392394
2010-07-02 06:26:15 51°22.973 2°53.865 17.7588 4.099407 30.891194 0.392394
2010-07-02 06:26:20 51°22.993 2°53.87 17.7617 4.100778 30.901618 0.392394
2010-07-02 06:26:25 51°23.013 2°53.876 17.7593 4.099301 30.891406 0.427218
2010-07-02 06:26:30 51°23.033 2°53.881 17.7477 4.101411 30.909132 0.392394
2010-07-02 06:26:35 51°23.054 2°53.887 17.74 4.101939 30.913015 0.392394
2010-07-02 06:26:40 51°23.074 2°53.893 17.7366 4.100884 30.903053 0.35757
2010-07-02 06:26:45 51°23.094 2°53.898 17.7335 4.100884 30.903053 0.35757
2010-07-02 06:26:50 51°23.114 2°53.903 17.7327 4.102044 30.912802 0.35757
2010-07-02 06:26:55 51°23.135 2°53.909 17.7358 4.101622 30.908708 0.35757
2010-07-02 06:27:00 51°23.155 2°53.914 17.7403 4.101939 30.911367 0.35757
2010-07-02 06:27:05 51°23.175 2°53.919 17.7442 4.102572 30.918333 0.35757
2010-07-02 06:27:10 51°23.195 2°53.924 17.7456 4.103627 30.931045 0.35757
2010-07-02 06:27:15 51°23.215 2°53.93 17.7421 4.103627 30.931045 0.35757
2010-07-02 06:27:20 51°23.236 2°53.935 17.7245 4.103627 30.934893 0.35757
2010-07-02 06:27:25 51°23.256 2°53.94 17.7166 4.104682 30.947061 0.322746
2010-07-02 06:27:30 51°23.276 2°53.944 17.7109 4.104155 30.945928 0.322746
2010-07-02 06:27:35 51°23.296 2°53.949 17.7037 4.104893 30.953237 0.35757
2010-07-02 06:27:40 51°23.316 2°53.953 17.6945 4.104999 30.953023 0.322746
2010-07-02 06:27:45 51°23.336 2°53.958 17.6778 4.104999 30.953023 0.322746
2010-07-02 06:27:50 51°23.356 2°53.963 17.6703 4.104471 30.946938 0.35757
2010-07-02 06:27:55 51°23.376 2°53.968 17.6507 4.106054 30.96024 0.322746
2010-07-02 06:28:00 51°23.396 2°53.973 17.6369 4.104682 30.950913 0.322746
2010-07-02 06:28:05 51°23.416 2°53.978 17.6228 4.10732 30.979696 0.287922
2010-07-02 06:28:10 51°23.436 2°53.983 17.6228 4.107637 30.989523 0.287922
2010-07-02 06:28:15 51°23.456 2°53.988 17.5969 4.107637 30.989523 0.287922
2010-07-02 06:28:20 51°23.476 2°53.994 17.5885 4.106476 30.986929 0.253098
2010-07-02 06:28:25 51°23.496 2°53.998 17.5841 4.108481 31.009312 0.287922
2010-07-02 06:28:30 51°23.516 2°54.003 17.5824 4.108481 31.020355 0.287922
2010-07-02 06:28:35 51°23.536 2°54.007 17.5741 4.108692 31.032078 0.287922
2010-07-02 06:28:40 51°23.556 2°54.012 17.5762 4.107321 31.032138 0.253098
2010-07-02 06:28:45 51°23.576 2°54.017 17.5583 4.107321 31.032138 0.253098
2010-07-02 06:28:50 51°23.597 2°54.021 17.5598 4.105633 31.030086 0.287922
2010-07-02 06:28:55 51°23.617 2°54.025 17.5654 4.104684 31.034259 0.253098
2010-07-02 06:29:00 51°23.636 2°54.03 17.5531 4.107005 31.063246 0.253098
2010-07-02 06:29:04 51°23.652 2°54.033 17.5479 4.104895 31.053211 0.287922
2010-07-02 06:29:10 51°23.676 2°54.039 17.5446 4.10479 31.05842 0.253098
2010-07-02 06:29:15 51°23.696 2°54.044 17.5447 4.10479 31.05842 0.253098
2010-07-02 06:29:20 51°23.715 2°54.049 17.5373 4.105001 31.066856 0.253098
2010-07-02 06:29:24 51°23.731 2°54.052 17.5366 4.105106 31.071631 0.253098
2010-07-02 06:29:30 51°23.755 2°54.058 17.53 4.10268 31.056701 0.253098
2010-07-02 06:29:35 51°23.775 2°54.063 17.5343 4.103735 31.070046 0.253098
2010-07-02 06:29:40 51°23.795 2°54.068 17.5345 4.10363 31.073042 0.35757
2010-07-02 06:29:45 51°23.815 2°54.072 17.5334 4.10363 31.073042 0.35757
2010-07-02 06:29:50 51°23.835 2°54.076 17.5342 4.100042 31.046091 0.287922
2010-07-02 06:29:56 51°23.859 2°54.081 17.5345 4.101309 31.060665 0.322746
2010-07-02 06:30:00 51°23.875 2°54.085 17.5352 4.101098 31.061104 0.35757
2010-07-02 06:30:05 51°23.895 2°54.089 17.5319 4.100781 31.062319 0.35757
2010-07-02 06:30:10 51°23.915 2°54.093 17.5338 4.100148 31.05975 0.322746
2010-07-02 06:30:16 51°23.939 2°54.099 17.534 4.100148 31.05975 0.322746
2010-07-02 06:30:20 51°23.955 2°54.103 17.5325 4.096877 31.03435 0.322746
2010-07-02 06:30:24 51°23.97 2°54.107 17.5302 4.099726 31.058407 0.35757
2010-07-02 06:30:30 51°23.994 2°54.112 17.5258 4.099199 31.056174 0.322746
2010-07-02 06:30:36 51°24.018 2°54.117 17.5345 4.098777 31.052609 0.35757
2010-07-02 06:30:40 51°24.034 2°54.121 17.5307 4.098988 31.053281 0.35757
2010-07-02 06:30:45 51°24.054 2°54.125 17.53 4.098988 31.053281 0.35757
2010-07-02 06:30:50 51°24.074 2°54.13 17.5309 4.09846 31.051047 0.322746
2010-07-02 06:30:56 51°24.098 2°54.135 17.528 4.098144 31.048373 0.322746
2010-07-02 06:31:00 51°24.114 2°54.138 17.5275 4.098038 31.048038 0.427218
2010-07-02 06:31:04 51°24.129 2°54.141 17.5316 4.097722 31.045919 0.35757
2010-07-02 06:31:10 51°24.153 2°54.147 17.5266 4.097194 31.04313 0.392394
2010-07-02 06:31:15 51°24.173 2°54.151 17.5302 4.097194 31.04313 0.392394
2010-07-02 06:31:20 51°24.193 2°54.156 17.533 4.096983 31.041347 0.392394
2010-07-02 06:31:25 51°24.213 2°54.16 17.5389 4.096878 31.039901 0.392394
2010-07-02 06:31:30 51°24.233 2°54.165 17.5424 4.096456 31.035781 0.427218
2010-07-02 06:31:35 51°24.253 2°54.169 17.5484 4.096456 31.036336 0.427218
2010-07-02 06:31:40 51°24.272 2°54.174 17.545 4.096034 31.033882 0.392394
2010-07-02 06:31:45 51°24.292 2°54.178 17.5485 4.096034 31.033882 0.392394
2010-07-02 06:31:50 51°24.312 2°54.182 17.5481 4.095823 31.032655 0.462042
2010-07-02 06:31:56 51°24.336 2°54.188 17.5509 4.094767 31.022634 0.427218
2010-07-02 06:32:00 51°24.352 2°54.192 17.5507 4.094134 31.018952 0.462042
2010-07-02 06:32:04 51°24.368 2°54.195 17.551 4.094451 31.019406 0.462042
2010-07-02 06:32:10 51°24.392 2°54.2 17.5561 4.094556 31.016968 0.496866
2010-07-02 06:32:15 51°24.412 2°54.205 17.5537 4.094556 31.016968 0.496866
2010-07-02 06:32:20 51°24.432 2°54.209 17.5529 4.094662 31.015086 0.427218
2010-07-02 06:32:25 51°24.452 2°54.214 17.5569 4.094345 31.00964 0.462042
2010-07-02 06:32:30 51°24.471 2°54.218 17.5499 4.093923 31.004968 0.496866
2010-07-02 06:32:36 51°24.495 2°54.224 17.5456 4.093712 31.002633 0.462042
2010-07-02 06:32:40 51°24.511 2°54.227 17.5455 4.093185 30.996517 0.462042
2010-07-02 06:32:45 51°24.531 2°54.231 17.5491 4.093185 30.996517 0.462042
2010-07-02 06:32:50 51°24.551 2°54.236 17.5451 4.093185 30.994854 0.462042
2010-07-02 06:32:56 51°24.575 2°54.241 17.5366 4.093607 30.997862 0.496866
2010-07-02 06:33:00 51°24.591 2°54.244 17.5381 4.092657 30.989847 0.496866
2010-07-02 06:33:04 51°24.607 2°54.248 17.5319 4.092235 30.985731 0.53169
2010-07-02 06:33:10 51°24.631 2°54.253 17.5257 4.091285 30.978824 0.496866
2010-07-02 06:33:15 51°24.651 2°54.257 17.5261 4.091285 30.978824 0.496866
2010-07-02 06:33:20 51°24.671 2°54.261 17.5193 4.090969 30.977814 0.462042
2010-07-02 06:33:25 51°24.691 2°54.266 17.5159 4.090863 30.97637 0.496866
2010-07-02 06:33:30 51°24.711 2°54.27 17.5178 4.09023 30.973241 0.496866
2010-07-02 06:33:36 51°24.735 2°54.275 17.5183 4.090864 30.980247 0.496866
2010-07-02 06:33:40 51°24.751 2°54.278 17.5154 4.090442 30.979454 0.496866
2010-07-02 06:33:45 51°24.771 2°54.282 17.5133 4.090442 30.979454 0.496866
2010-07-02 06:33:50 51°24.791 2°54.287 17.5126 4.089914 30.978878 0.462042
2010-07-02 06:33:55 51°24.811 2°54.291 17.5106 4.089281 30.976857 0.53169
2010-07-02 06:34:00 51°24.831 2°54.296 17.503 4.089176 30.979291 0.462042
2010-07-02 06:34:05 51°24.851 2°54.3 17.5054 4.088965 30.979726 0.496866
2010-07-02 06:34:10 51°24.871 2°54.305 17.4992 4.088965 30.98028 0.53169
2010-07-02 06:34:15 51°24.891 2°54.309 17.5042 4.088965 30.98028 0.53169
2010-07-02 06:34:20 51°24.911 2°54.313 17.4998 4.088226 30.975706 0.496866
2010-07-02 06:34:24 51°24.927 2°54.315 17.4998 4.088121 30.975923 0.462042
2010-07-02 06:34:30 51°24.951 2°54.321 17.4986 4.087488 30.973348 0.496866
2010-07-02 06:34:35 51°24.971 2°54.325 17.5 4.086855 30.970772 0.496866
2010-07-02 06:34:40 51°24.991 2°54.33 17.4913 4.086855 30.972435 0.496866
2010-07-02 06:34:45 51°25.011 2°54.334 17.4923 4.086855 30.972435 0.496866
2010-07-02 06:34:50 51°25.032 2°54.339 17.4937 4.086327 30.969641 0.462042
2010-07-02 06:34:55 51°25.052 2°54.344 17.494 4.085589 30.965619 0.462042
2010-07-02 06:35:00 51°25.072 2°54.348 17.4834 4.085589 30.966174 0.462042
2010-07-02 06:35:05 51°25.092 2°54.353 17.487 4.085272 30.964608 0.496866
2010-07-02 06:35:10 51°25.112 2°54.358 17.4872 4.085272 30.965163 0.496866
2010-07-02 06:35:16 51°25.136 2°54.363 17.4872 4.085272 30.965163 0.496866
2010-07-02 06:35:20 51°25.152 2°54.367 17.4797 4.084534 30.961694 0.462042
2010-07-02 06:35:24 51°25.168 2°54.37 17.4836 4.084217 30.960683 0.496866
2010-07-02 06:35:30 51°25.192 2°54.375 17.4808 4.083795 30.958226 0.462042
2010-07-02 06:35:35 51°25.212 2°54.38 17.4822 4.084217 30.963455 0.496866
2010-07-02 06:35:40 51°25.232 2°54.384 17.4859 4.083901 30.961889 0.462042
2010-07-02 06:35:45 51°25.252 2°54.389 17.4799 4.083901 30.961889 0.462042
2010-07-02 06:35:50 51°25.272 2°54.393 17.4829 4.083584 30.960323 0.427218
2010-07-02 06:35:55 51°25.293 2°54.397 17.477 4.084006 30.963335 0.427218
2010-07-02 06:36:00 51°25.313 2°54.402 17.4748 4.083479 30.96165 0.427218
2010-07-02 06:36:05 51°25.333 2°54.406 17.4752 4.082635 30.95618 0.427218
2010-07-02 06:36:10 51°25.353 2°54.41 17.4739 4.083162 30.961747 0.427218
2010-07-02 06:36:15 51°25.373 2°54.414 17.4719 4.083162 30.961747 0.427218
2010-07-02 06:36:20 51°25.393 2°54.419 17.4739 4.083162 30.960638 0.427218
2010-07-02 06:36:25 51°25.413 2°54.423 17.471 4.083162 30.961193 0.427218
2010-07-02 06:36:30 51°25.433 2°54.428 17.4673 4.083374 30.963531 0.392394
2010-07-02 06:36:35 51°25.453 2°54.432 17.4631 4.083268 30.963748 0.392394
2010-07-02 06:36:40 51°25.473 2°54.436 17.4562 4.083585 30.966979 0.427218
2010-07-02 06:36:45 51°25.493 2°54.44 17.453 4.083585 30.966979 0.427218
2010-07-02 06:36:50 51°25.513 2°54.445 17.4437 4.083163 30.96563 0.462042
2010-07-02 06:36:56 51°25.537 2°54.45 17.4366 4.083479 30.968306 0.427218
2010-07-02 06:37:00 51°25.553 2°54.454 17.4265 4.083268 30.968741 0.427218
2010-07-02 06:37:04 51°25.569 2°54.457 17.4196 4.083057 30.968622 0.462042
2010-07-02 06:37:10 51°25.593 2°54.463 17.4134 4.082741 30.967611 0.427218
2010-07-02 06:37:15 51°25.613 2°54.468 17.4045 4.082741 30.967611 0.427218
2010-07-02 06:37:20 51°25.633 2°54.473 17.4021 4.082108 30.963923 0.427218
2010-07-02 06:37:25 51°25.653 2°54.477 17.3932 4.082108 30.970028 0.462042
2010-07-02 06:37:30 51°25.674 2°54.482 17.3929 4.08158 30.967232 0.392394
2010-07-02 06:37:36 51°25.698 2°54.488 17.3947 4.081475 30.974113 0.427218
2010-07-02 06:37:40 51°25.714 2°54.492 17.396 4.080631 30.973083 0.462042
2010-07-02 06:37:45 51°25.734 2°54.496 17.3994 4.080631 30.973083 0.462042
2010-07-02 06:37:50 51°25.754 2°54.501 17.4005 4.080737 30.980087 0.392394
2010-07-02 06:37:56 51°25.778 2°54.507 17.4046 4.079998 30.982175 0.392394
2010-07-02 06:38:00 51°25.794 2°54.511 17.4055 4.079787 30.984281 0.427218
2010-07-02 06:38:05 51°25.815 2°54.516 17.4117 4.079682 30.988393 0.392394
2010-07-02 06:38:10 51°25.835 2°54.521 17.4174 4.078943 30.98659 0.427218
2010-07-02 06:38:15 51°25.855 2°54.526 17.4236 4.078943 30.98659 0.427218
2010-07-02 06:38:20 51°25.875 2°54.531 17.4264 4.078943 30.98659 0.392394
2010-07-02 06:38:25 51°25.895 2°54.536 17.4301 4.077888 30.979882 0.392394
2010-07-02 06:38:30 51°25.916 2°54.541 17.4322 4.078205 30.980337 0.392394
2010-07-02 06:38:36 51°25.94 2°54.547 17.4283 4.07831 30.980118 0.392394
2010-07-02 06:38:40 51°25.956 2°54.55 17.4346 4.078732 30.982023 0.35757
2010-07-02 06:38:45 51°25.976 2°54.555 17.4284 4.078732 30.982023 0.35757
2010-07-02 06:38:50 51°25.996 2°54.56 17.4224 4.079049 30.981365 0.35757
2010-07-02 06:38:55 51°26.016 2°54.566 17.4221 4.079049 30.978029 0.392394
2010-07-02 06:39:00 51°26.037 2°54.571 17.4169 4.079682 30.979496 0.392394
2010-07-02 06:39:05 51°26.057 2°54.576 17.4079 4.079576 30.974712 0.392394
2010-07-02 06:39:10 51°26.077 2°54.581 17.4064 4.079998 30.977172 0.35757
2010-07-02 06:39:15 51°26.097 2°54.586 17.3927 4.079998 30.977172 0.35757
2010-07-02 06:39:20 51°26.117 2°54.59 17.3881 4.080315 30.978183 0.322746
2010-07-02 06:39:25 51°26.137 2°54.595 17.3803 4.080526 30.978302 0.322746
2010-07-02 06:39:30 51°26.157 2°54.6 17.3799 4.080209 30.977846 0.35757
2010-07-02 06:39:35 51°26.178 2°54.606 17.3703 4.081581 30.991678 0.322746
2010-07-02 06:39:40 51°26.198 2°54.61 17.373 4.081792 30.9968 0.322746
2010-07-02 06:39:45 51°26.218 2°54.615 17.3565 4.081792 30.9968 0.322746
2010-07-02 06:39:50 51°26.238 2°54.62 17.3463 4.082214 31.004824 0.35757
2010-07-02 06:39:56 51°26.262 2°54.626 17.3424 4.082636 31.01452 0.287922
2010-07-02 06:40:00 51°26.278 2°54.63 17.3381 4.083058 31.021435 0.322746
2010-07-02 06:40:05 51°26.299 2°54.634 17.3334 4.083691 31.032368 0.322746
2010-07-02 06:40:10 51°26.319 2°54.639 17.3292 4.083269 31.033251 0.253098
2010-07-02 06:40:15 51°26.339 2°54.644 17.332 4.083269 31.033251 0.253098
2010-07-02 06:40:20 51°26.36 2°54.649 17.3187 4.084113 31.045978 0.287922
2010-07-02 06:40:25 51°26.38 2°54.654 17.3149 4.084957 31.058152 0.253098
2010-07-02 06:40:30 51°26.4 2°54.66 17.3136 4.08538 31.069545 0.287922
2010-07-02 06:40:35 51°26.421 2°54.665 17.3121 4.08538 31.075131 0.253098
2010-07-02 06:40:40 51°26.441 2°54.67 17.3027 4.086329 31.088772 0.253098
2010-07-02 06:40:45 51°26.461 2°54.676 17.2951 4.086329 31.088772 0.253098
2010-07-02 06:40:50 51°26.481 2°54.682 17.2758 4.086857 31.098838 0.253098
2010-07-02 06:40:56 51°26.506 2°54.689 17.2708 4.086857 31.103314 0.253098
2010-07-02 06:41:00 51°26.522 2°54.693 17.2549 4.087385 31.109468 0.18345
2010-07-02 06:41:04 51°26.538 2°54.697 17.2419 4.088651 31.126931 0.218274
2010-07-02 06:41:10 51°26.563 2°54.702 17.239 4.088967 31.130177 0.18345
2010-07-02 06:41:15 51°26.583 2°54.707 17.2372 4.088967 31.130177 0.18345
2010-07-02 06:41:20 51°26.604 2°54.711 17.2368 4.089178 31.137571 0.18345
2010-07-02 06:41:25 51°26.624 2°54.713 17.2281 4.09055 31.154823 0.18345
2010-07-02 06:41:30 51°26.644 2°54.717 17.2193 4.090761 31.163347 0.18345
2010-07-02 06:41:36 51°26.669 2°54.721 17.2154 4.091289 31.179057 0.148626
2010-07-02 06:41:40 51°26.685 2°54.724 17.2051 4.091817 31.19478 0.148626
2010-07-02 06:41:45 51°26.706 2°54.727 17.2055 4.091817 31.19478 0.148626
2010-07-02 06:41:50 51°26.726 2°54.729 17.2022 4.092872 31.211623 0.113802
2010-07-02 06:41:56 51°26.751 2°54.733 17.1976 4.092661 31.215457 0.078977
2010-07-02 06:42:00 51°26.767 2°54.735 17.1966 4.093294 31.225345 0.113802
2010-07-02 06:42:05 51°26.787 2°54.738 17.1996 4.093611 31.233107 0.113802
2010-07-02 06:42:10 51°26.808 2°54.741 17.196 4.094349 31.244463 0.044153
2010-07-02 06:42:16 51°26.832 2°54.744 17.192 4.094349 31.244463 0.044153
2010-07-02 06:42:20 51°26.849 2°54.746 17.1888 4.094666 31.253359 0.044153
2010-07-02 06:42:25 51°26.869 2°54.749 17.1855 4.094877 31.261361 0.009329
2010-07-02 06:42:30 51°26.89 2°54.752 17.1783 4.09551 31.269572 0.009329
2010-07-02 06:42:36 51°26.914 2°54.756 17.174 4.095721 31.275321 0.044153
2010-07-02 06:42:40 51°26.931 2°54.758 17.1742 4.096671 31.285665 0.009329
2010-07-02 06:42:45 51°26.951 2°54.761 17.1614 4.096671 31.285665 0.009329
2010-07-02 06:42:50 51°26.972 2°54.763 17.1537 4.096776 31.287693 0.009329
2010-07-02 06:42:55 51°26.992 2°54.766 17.1444 4.097093 31.293214 -0.025495
2010-07-02 06:43:00 51°27.012 2°54.768 17.1378 4.097937 31.30436 0.009329
2010-07-02 06:43:05 51°27.033 2°54.77 17.1216 4.098043 31.308087 0.009329
2010-07-02 06:43:10 51°27.053 2°54.772 17.1171 4.098465 31.315642 0.009329
2010-07-02 06:43:16 51°27.077 2°54.772 17.1007 4.098465 31.315642 0.009329
2010-07-02 06:43:20 51°27.093 2°54.774 17.0695 4.098465 31.318471 0.044153
2010-07-02 06:43:24 51°27.109 2°54.774 17.0447 4.099203 31.327595 -0.025495
2010-07-02 06:43:30 51°27.133 2°54.776 16.9923 4.098887 31.331693 -0.025495
2010-07-02 06:43:35 51°27.153 2°54.776 16.9457 4.10047 31.350282 -0.025495
2010-07-02 06:43:40 51°27.173 2°54.778 16.9204 4.099204 31.35026 -0.025495
2010-07-02 06:43:45 51°27.193 2°54.779 16.9064 4.099204 31.35026 -0.025495
2010-07-02 06:43:50 51°27.213 2°54.781 16.8546 4.098887 31.356069 -0.025495
2010-07-02 06:43:56 51°27.237 2°54.783 16.8251 4.098993 31.36605 0.009329
2010-07-02 06:44:00 51°27.254 2°54.784 16.8073 4.099943 31.39063 -0.060319
2010-07-02 06:44:04 51°27.27 2°54.785 16.8013 4.099732 31.408172 -0.060319
2010-07-02 06:44:10 51°27.294 2°54.788 16.7782 4.100049 31.444506 -0.060319
2010-07-02 06:44:15 51°27.313 2°54.788 16.7661 4.100049 31.444506 -0.060319
2010-07-02 06:44:20 51°27.333 2°54.791 16.7625 4.099944 31.465877 -0.095143
2010-07-02 06:44:25 51°27.353 2°54.794 16.7516 4.099101 31.488971 -0.129967
2010-07-02 06:44:30 51°27.373 2°54.794 16.7499 4.098046 31.509732 -0.095143
2010-07-02 06:44:36 51°27.398 2°54.796 16.7343 4.096147 31.522721 -0.095143
2010-07-02 06:44:40 51°27.414 2°54.797 16.7203 4.095198 31.53699 -0.060319
2010-07-02 06:44:45 51°27.433 2°54.798 16.7222 4.095198 31.53699 -0.060319
2010-07-02 06:44:50 51°27.453 2°54.799 16.714 4.093616 31.542964 -0.095143
2010-07-02 06:44:55 51°27.473 2°54.801 16.7183 4.091612 31.544167 -0.095143
2010-07-02 06:45:00 51°27.493 2°54.802 16.7134 4.090768 31.549591 -0.095143
2010-07-02 06:45:05 51°27.513 2°54.804 16.7004 4.089819 31.552381 -0.095143
2010-07-02 06:45:10 51°27.533 2°54.806 16.6931 4.089291 31.557652 -0.095143
2010-07-02 06:45:15 51°27.553 2°54.808 16.6927 4.089291 31.557652 -0.095143
2010-07-02 06:45:20 51°27.573 2°54.81 16.6895 4.088658 31.561441 -0.095143
2010-07-02 06:45:25 51°27.593 2°54.811 16.6834 4.088236 31.564161 -0.129967
2010-07-02 06:45:30 51°27.613 2°54.813 16.675 4.087076 31.563412 -0.095143
2010-07-02 06:45:36 51°27.637 2°54.815 16.6662 4.08697 31.565393 -0.129967
2010-07-02 06:45:40 51°27.653 2°54.816 16.662 4.08676 31.5682 -0.129967
2010-07-02 06:45:45 51°27.672 2°54.818 16.6566 4.08676 31.5682 -0.129967
2010-07-02 06:45:50 51°27.692 2°54.82 16.6582 4.087287 31.578526 -0.164791
2010-07-02 06:45:55 51°27.713 2°54.822 16.6484 4.086232 31.575221 -0.129967
2010-07-02 06:46:00 51°27.733 2°54.823 16.6506 4.086232 31.580428 -0.164791
2010-07-02 06:46:05 51°27.753 2°54.825 16.646 4.085599 31.578444 -0.095143
2010-07-02 06:46:10 51°27.773 2°54.826 16.6475 4.085177 31.583489 -0.164791
2010-07-02 06:46:15 51°27.793 2°54.828 16.6552 4.085177 31.583489 -0.164791
2010-07-02 06:46:20 51°27.813 2°54.83 16.6539 4.085283 31.589611 -0.129967
2010-07-02 06:46:25 51°27.833 2°54.832 16.6413 4.085494 31.596644 -0.129967
2010-07-02 06:46:30 51°27.853 2°54.834 16.6443 4.08465 31.594001 -0.164791
2010-07-02 06:46:35 51°27.873 2°54.836 16.6466 4.084228 31.593838 -0.129967
2010-07-02 06:46:40 51°27.893 2°54.836 16.6451 4.084439 31.600876 -0.164791
2010-07-02 06:46:45 51°27.912 2°54.838 16.6467 4.084439 31.600876 -0.164791
2010-07-02 06:46:50 51°27.933 2°54.839 16.6414 4.084439 31.602035 -0.199615
2010-07-02 06:46:55 51°27.953 2°54.84 16.6331 4.084439 31.602615 -0.164791
2010-07-02 06:47:00 51°27.973 2°54.841 16.6305 4.084123 31.599305 -0.199615
2010-07-02 06:47:04 51°27.989 2°54.842 16.6315 4.08349 31.598482 -0.164791
2010-07-02 06:47:10 51°28.013 2°54.845 16.6329 4.083595 31.599392 -0.164791
2010-07-02 06:47:15 51°28.033 2°54.847 16.623 4.083595 31.599392 -0.164791
2010-07-02 06:47:20 51°28.053 2°54.848 16.6204 4.082646 31.592939 -0.164791
2010-07-02 06:47:25 51°28.073 2°54.85 16.6202 4.083806 31.602373 -0.164791
2010-07-02 06:47:30 51°28.093 2°54.852 16.6168 4.083912 31.604443 -0.164791
2010-07-02 06:47:36 51°28.118 2°54.855 16.6116 4.083173 31.602711 -0.164791
2010-07-02 06:47:40 51°28.134 2°54.856 16.6116 4.083596 31.608094 -0.164791
2010-07-02 06:47:45 51°28.154 2°54.858 16.6016 4.083596 31.608094 -0.164791
2010-07-02 06:47:50 51°28.174 2°54.859 16.6005 4.082752 31.60371 -0.164791
2010-07-02 06:47:55 51°28.194 2°54.861 16.6054 4.083279 31.610004 -0.129967
2010-07-02 06:48:00 51°28.214 2°54.863 16.6109 4.083385 31.614979 -0.129967
2010-07-02 06:48:05 51°28.234 2°54.864 16.6071 4.083279 31.61581 -0.164791
2010-07-02 06:48:10 51°28.254 2°54.865 16.6109 4.083807 31.623268 -0.129967
2010-07-02 06:48:15 51°28.274 2°54.866 16.6106 4.083807 31.623268 -0.129967
2010-07-02 06:48:20 51°28.294 2°54.867 16.6136 4.083912 31.625922 -0.164791
2010-07-02 06:48:25 51°28.314 2°54.868 16.6189 4.083912 31.631732 -0.164791
2010-07-02 06:48:30 51°28.334 2°54.869 16.6238 4.084862 31.641678 -0.164791
2010-07-02 06:48:36 51°28.358 2°54.871 16.6249 4.084756 31.641348 -0.164791
2010-07-02 06:48:40 51°28.374 2°54.871 16.6309 4.084967 31.64317 -0.164791
2010-07-02 06:48:45 51°28.394 2°54.873 16.6336 4.084967 31.64317 -0.164791
2010-07-02 06:48:50 51°28.415 2°54.874 16.6334 4.084651 31.639855 -0.164791
2010-07-02 06:48:56 51°28.439 2°54.876 16.6313 4.084123 31.635299 -0.164791
2010-07-02 06:49:00 51°28.455 2°54.878 16.6283 4.083174 31.625354 -0.129967
2010-07-02 06:49:05 51°28.475 2°54.879 16.6272 4.082646 31.618474 -0.129967
2010-07-02 06:49:10 51°28.495 2°54.882 16.6321 4.082541 31.61524 -0.095143
2010-07-02 06:49:15 51°28.515 2°54.883 16.6258 4.082541 31.61524 -0.095143
2010-07-02 06:49:20 51°28.535 2°54.885 16.6293 4.081802 31.605379 -0.095143
2010-07-02 06:49:25 51°28.555 2°54.886 16.6301 4.081486 31.599744 -0.129967
2010-07-02 06:49:30 51°28.575 2°54.887 16.6252 4.080536 31.588647 -0.095143
2010-07-02 06:49:35 51°28.595 2°54.888 16.6268 4.080536 31.589807 -0.129967
2010-07-02 06:49:40 51°28.615 2°54.89 16.6243 4.079797 31.583432 -0.095143
2010-07-02 06:49:45 51°28.635 2°54.891 16.6205 4.079797 31.583432 -0.095143
2010-07-02 06:49:50 51°28.656 2°54.893 16.615 4.079481 31.5807 -0.095143
2010-07-02 06:49:55 51°28.676 2°54.894 16.6138 4.078637 31.573994 -0.095143
2010-07-02 06:50:00 51°28.696 2°54.896 16.6099 4.078426 31.573332 -0.095143
2010-07-02 06:50:05 51°28.716 2°54.897 16.6042 4.078004 31.56853 -0.060319
2010-07-02 06:50:10 51°28.736 2°54.899 16.6025 4.077793 31.568448 -0.129967
2010-07-02 06:50:16 51°28.76 2°54.9 16.6025 4.077793 31.568448 -0.129967
2010-07-02 06:50:20 51°28.776 2°54.902 16.5968 4.077898 31.569358 -0.060319
2010-07-02 06:50:25 51°28.796 2°54.903 16.6028 4.077371 31.567124 -0.095143
2010-07-02 06:50:30 51°28.816 2°54.905 16.5943 4.077688 31.571596 -0.129967
2010-07-02 06:50:35 51°28.836 2°54.906 16.5932 4.077688 31.572176 -0.060319
2010-07-02 06:50:40 51°28.856 2°54.908 16.5997 4.077055 31.57077 -0.129967
2010-07-02 06:50:45 51°28.876 2°54.909 16.5941 4.077055 31.57077 -0.129967
2010-07-02 06:50:50 51°28.896 2°54.911 16.5844 4.074101 31.549323 -0.095143
2010-07-02 06:50:55 51°28.916 2°54.913 16.5846 4.077266 31.578393 -0.095143
2010-07-02 06:51:00 51°28.936 2°54.914 16.5821 4.077582 31.584609 -0.095143
2010-07-02 06:51:05 51°28.956 2°54.915 16.5837 4.076949 31.579722 -0.095143
2010-07-02 06:51:10 51°28.976 2°54.915 16.5787 4.076844 31.581133 -0.129967
2010-07-02 06:51:16 51°29 2°54.917 16.5831 4.076844 31.581133 -0.129967
2010-07-02 06:51:20 51°29.015 2°54.917 16.5862 4.07811 31.59323 -0.129967
2010-07-02 06:51:25 51°29.035 2°54.918 16.5843 4.077582 31.590995 -0.095143
2010-07-02 06:51:30 51°29.055 2°54.919 16.5899 4.078215 31.598787 -0.164791
2010-07-02 06:51:35 51°29.075 2°54.92 16.588 4.07811 31.601362 -0.129967
2010-07-02 06:51:40 51°29.095 2°54.922 16.5922 4.078637 31.60592 -0.129967
2010-07-02 06:51:45 51°29.115 2°54.923 16.5921 4.078637 31.60592 -0.129967
2010-07-02 06:51:50 51°29.135 2°54.924 16.5917 4.078216 31.606341 -0.129967
2010-07-02 06:51:55 51°29.155 2°54.925 16.5988 4.07811 31.604267 -0.164791
2010-07-02 06:52:00 51°29.175 2°54.926 16.6021 4.07811 31.603686 -0.164791
2010-07-02 06:52:05 51°29.195 2°54.928 16.5999 4.077688 31.600039 -0.164791
2010-07-02 06:52:10 51°29.214 2°54.928 16.6058 4.077371 31.596142 -0.164791
2010-07-02 06:52:15 51°29.234 2°54.929 16.6045 4.077371 31.596142 -0.164791
2010-07-02 06:52:20 51°29.254 2°54.93 16.6091 4.076105 31.585203 -0.164791
2010-07-02 06:52:25 51°29.274 2°54.931 16.6142 4.075472 31.577992 -0.129967
2010-07-02 06:52:30 51°29.294 2°54.932 16.6167 4.075894 31.580477 -0.129967
2010-07-02 06:52:35 51°29.314 2°54.932 16.6205 4.075156 31.572355 -0.095143
2010-07-02 06:52:40 51°29.334 2°54.933 16.6178 4.074839 31.56672 -0.129967
2010-07-02 06:52:45 51°29.354 2°54.934 16.6209 4.074839 31.56672 -0.129967
2010-07-02 06:52:50 51°29.373 2°54.934 16.6256 4.074523 31.562826 -0.164791
2010-07-02 06:52:55 51°29.393 2°54.935 16.6273 4.074101 31.556861 -0.129967
2010-07-02 06:53:00 51°29.413 2°54.936 16.6292 4.073151 31.546341 -0.129967
2010-07-02 06:53:05 51°29.433 2°54.937 16.6285 4.073573 31.547087 -0.129967
2010-07-02 06:53:10 51°29.452 2°54.94 16.634 4.072201 31.532347 -0.129967
2010-07-02 06:53:16 51°29.477 2°54.94 16.6328 4.072201 31.532347 -0.129967
2010-07-02 06:53:20 51°29.493 2°54.942 16.6367 4.072518 31.532762 -0.164791
2010-07-02 06:53:25 51°29.513 2°54.942 16.6348 4.072412 31.530693 -0.095143
2010-07-02 06:53:30 51°29.533 2°54.944 16.6361 4.071357 31.518691 -0.095143
2010-07-02 06:53:35 51°29.553 2°54.945 16.6366 4.07083 31.512401 -0.129967
2010-07-02 06:53:40 51°29.574 2°54.946 16.638 4.06988 31.50247 -0.095143
2010-07-02 06:53:45 51°29.594 2°54.948 16.64 4.06988 31.50247 -0.095143
2010-07-02 06:53:50 51°29.614 2°54.95 16.642 4.069564 31.498003 -0.095143
2010-07-02 06:53:55 51°29.634 2°54.952 16.6483 4.068931 31.490228 -0.095143
2010-07-02 06:54:00 51°29.654 2°54.954 16.6501 4.068509 31.48543 -0.095143
2010-07-02 06:54:05 51°29.675 2°54.955 16.6463 4.067981 31.480301 -0.129967
2010-07-02 06:54:10 51°29.696 2°54.955 16.632 4.067137 31.472441 -0.095143
2010-07-02 06:54:16 51°29.719 2°54.959 16.6319 4.067137 31.472441 -0.095143
2010-07-02 06:54:20 51°29.735 2°54.961 16.6172 4.06777 31.477324 -0.095143
2010-07-02 06:54:25 51°29.755 2°54.963 16.6157 4.06777 31.476168 -0.164791
2010-07-02 06:54:30 51°29.775 2°54.965 16.6044 4.067559 31.472615 -0.095143
2010-07-02 06:54:35 51°29.795 2°54.966 16.5967 4.068192 31.475186 -0.095143
2010-07-02 06:54:40 51°29.815 2°54.969 16.5901 4.068825 31.479491 -0.095143
2010-07-02 06:54:45 51°29.835 2°54.973 16.5899 4.068825 31.479491 -0.095143
2010-07-02 06:54:50 51°29.856 2°54.976 16.5796 4.070407 31.494298 -0.129967
2010-07-02 06:54:55 51°29.876 2°54.979 16.5817 4.071674 31.50869 -0.095143
2010-07-02 06:55:00 51°29.896 2°54.982 16.5861 4.072623 31.52267 -0.095143
2010-07-02 06:55:05 51°29.916 2°54.985 16.5979 4.0741 31.54063 -0.129967
2010-07-02 06:55:10 51°29.936 2°54.987 16.6102 4.074628 31.551559 -0.129967
2010-07-02 06:55:16 51°29.961 2°54.991 16.6199 4.074628 31.551559 -0.129967
2010-07-02 06:55:20 51°29.977 2°54.993 16.6369 4.075156 31.562492 -0.129967
2010-07-02 06:55:25 51°29.997 2°54.996 16.6526 4.075894 31.573511 -0.164791
2010-07-02 06:55:30 51°30.018 2°55 16.6624 4.076 31.580808 -0.164791
2010-07-02 06:55:35 51°30.038 2°55.003 16.6747 4.076422 31.586776 -0.129967
2010-07-02 06:55:40 51°30.058 2°55.006 16.6893 4.077055 31.591665 -0.164791
2010-07-02 06:55:45 51°30.079 2°55.01 16.7025 4.077055 31.591665 -0.164791
2010-07-02 06:55:50 51°30.099 2°55.013 16.7225 4.077371 31.590334 -0.164791
2010-07-02 06:55:55 51°30.12 2°55.017 16.7317 4.077793 31.587012 -0.164791
2010-07-02 06:56:00 51°30.14 2°55.02 16.753 4.078321 31.581121 -0.164791
2010-07-02 06:56:05 51°30.161 2°55.024 16.7678 4.078426 31.573332 -0.199615
2010-07-02 06:56:10 51°30.181 2°55.029 16.7893 4.079164 31.566374 -0.199615
2010-07-02 06:56:15 51°30.201 2°55.032 16.8109 4.079164 31.566374 -0.199615
2010-07-02 06:56:20 51°30.222 2°55.036 16.8315 4.079164 31.557686 -0.164791
2010-07-02 06:56:25 51°30.242 2°55.039 16.8483 4.079691 31.550079 -0.199615
2010-07-02 06:56:30 51°30.263 2°55.043 16.8697 4.07948 31.536114 -0.164791
2010-07-02 06:56:35 51°30.284 2°55.046 16.8964 4.079269 31.521004 -0.199615
2010-07-02 06:56:40 51°30.304 2°55.05 16.9152 4.07948 31.508966 -0.199615
2010-07-02 06:56:45 51°30.324 2°55.053 16.9331 4.07948 31.508966 -0.199615
2010-07-02 06:56:50 51°30.345 2°55.057 16.9561 4.079163 31.487212 -0.199615
2010-07-02 06:56:55 51°30.366 2°55.061 16.9648 4.079057 31.472482 -0.164791
2010-07-02 06:57:00 51°30.386 2°55.064 16.9802 4.078951 31.45374 -0.129967
2010-07-02 06:57:05 51°30.406 2°55.068 16.9882 4.078951 31.435928 -0.164791
2010-07-02 06:57:10 51°30.427 2°55.071 16.9946 4.078634 31.414847 -0.129967
2010-07-02 06:57:15 51°30.447 2°55.075 17.0001 4.078634 31.414847 -0.129967
2010-07-02 06:57:20 51°30.468 2°55.078 17.0103 4.078528 31.39274 -0.129967
2010-07-02 06:57:25 51°30.488 2°55.081 17.0148 4.077051 31.363478 -0.164791
2010-07-02 06:57:30 51°30.509 2°55.085 17.0132 4.078422 31.358095 -0.129967
2010-07-02 06:57:35 51°30.529 2°55.088 17.0067 4.078211 31.335739 -0.129967
2010-07-02 06:57:40 51°30.549 2°55.092 16.9993 4.078738 31.328284 -0.129967
2010-07-02 06:57:45 51°30.57 2°55.096 16.9877 4.078738 31.328284 -0.129967
2010-07-02 06:57:50 51°30.59 2°55.1 16.9826 4.079477 31.32549 -0.129967
2010-07-02 06:57:55 51°30.61 2°55.106 16.967 4.079898 31.318281 -0.129967
2010-07-02 06:58:00 51°30.63 2°55.111 16.9484 4.079476 31.307271 -0.095143
2010-07-02 06:58:05 51°30.651 2°55.117 16.9314 4.08127 31.31465 -0.164791
2010-07-02 06:58:10 51°30.671 2°55.122 16.9265 4.081903 31.318927 -0.129967
2010-07-02 06:58:15 51°30.691 2°55.128 16.9093 4.081903 31.318927 -0.129967
2010-07-02 06:58:20 51°30.711 2°55.134 16.903 4.082958 31.327383 -0.129967
2010-07-02 06:58:25 51°30.731 2°55.14 16.8979 4.083591 31.335644 -0.164791
2010-07-02 06:58:30 51°30.751 2°55.146 16.8901 4.084646 31.351507 -0.199615
2010-07-02 06:58:35 51°30.771 2°55.153 16.885 4.084963 31.361055 -0.164791
2010-07-02 06:58:40 51°30.792 2°55.158 16.8755 4.085701 31.377074 -0.129967
2010-07-02 06:58:45 51°30.812 2°55.165 16.8695 4.085701 31.377074 -0.129967
2010-07-02 06:58:50 51°30.832 2°55.171 16.8635 4.086018 31.390631 -0.164791
2010-07-02 06:58:55 51°30.852 2°55.177 16.86 4.086862 31.40929 -0.164791
2010-07-02 06:59:00 51°30.872 2°55.184 16.8617 4.08739 31.422962 -0.164791
2010-07-02 06:59:05 51°30.892 2°55.19 16.8656 4.086863 31.427596 -0.129967
2010-07-02 06:59:10 51°30.912 2°55.198 16.8681 4.086863 31.433321 -0.164791
2010-07-02 06:59:15 51°30.933 2°55.205 16.8639 4.086863 31.433321 -0.164791
2010-07-02 06:59:20 51°30.953 2°55.213 16.8706 4.086652 31.438385 -0.164791
2010-07-02 06:59:25 51°30.973 2°55.22 16.8698 4.086863 31.447071 -0.199615
2010-07-02 06:59:30 51°30.993 2°55.229 16.8616 4.086758 31.451899 -0.164791
2010-07-02 06:59:35 51°31.013 2°55.237 16.8527 4.086336 31.452865 -0.199615
2010-07-02 06:59:40 51°31.033 2°55.245 16.8475 4.086336 31.454586 -0.199615
2010-07-02 06:59:45 51°31.053 2°55.253 16.8343 4.086336 31.454586 -0.199615
2010-07-02 06:59:50 51°31.074 2°55.261 16.8235 4.084859 31.443629 -0.164791
2010-07-02 06:59:55 51°31.094 2°55.269 16.8076 4.085808 31.451206 -0.199615
2010-07-02 07:00:00 51°31.114 2°55.278 16.7923 4.085492 31.447342 -0.164791
2010-07-02 07:00:05 51°31.134 2°55.286 16.7911 4.085597 31.447674 -0.199615
2010-07-02 07:00:10 51°31.154 2°55.294 16.7799 4.085703 31.4503 -0.164791
2010-07-02 07:00:15 51°31.175 2°55.301 16.7747 4.085703 31.4503 -0.164791
2010-07-02 07:00:20 51°31.195 2°55.31 16.7607 4.086125 31.45966 -0.164791
2010-07-02 07:00:25 51°31.215 2°55.317 16.7547 4.08412 31.447614 -0.234439
2010-07-02 07:00:30 51°31.235 2°55.325 16.7299 4.085175 31.465284 -0.199615
2010-07-02 07:00:35 51°31.255 2°55.333 16.7086 4.086653 31.487164 -0.164791
2010-07-02 07:00:40 51°31.275 2°55.341 16.6925 4.087602 31.502798 -0.234439
2010-07-02 07:00:45 51°31.296 2°55.348 16.6816 4.087602 31.502798 -0.234439
2010-07-02 07:00:50 51°31.316 2°55.356 16.6728 4.086864 31.509112 -0.234439
2010-07-02 07:00:55 51°31.336 2°55.364 16.6606 4.08697 31.515777 -0.234439